Wetterdaten: Sonntag, 05.08.2018
Datum Zeit Temp. Aussen Temp. o. S. +5cm Feuchte Auss Luftdruck Regen Sonnenschein Regendauer Solar Windben Empfang
05.08.2018 00:00 22,1 C 19,4 C 21,1 C 80 % 1018,7 hPa 0,0 l/m 0 min 0 min 0 W/m 4,5 km/h (1 Bft) 95,74 %
05.08.2018 00:02 22,1 C 19,4 C 20,6 C 80 % 1018,6 hPa 0,0 l/m 0 min 0 min 0 W/m 6,8 km/h (2 Bft) 97,14 %
05.08.2018 00:04 22,1 C 19,4 C 20,6 C 80 % 1018,6 hPa 0,0 l/m 0 min 0 min 0 W/m 9,0 km/h (2 Bft) 95,74 %
05.08.2018 00:08 22,1 C 20,6 C 20,6 C 81 % 1018,6 hPa 0,0 l/m 0 min 0 min 0 W/m 9,0 km/h (2 Bft) 94,62 %
05.08.2018 00:10 22,0 C 20,6 C 20,6 C 81 % 1018,6 hPa 0,0 l/m 0 min 0 min 0 W/m 9,0 km/h (2 Bft) 95,74 %
05.08.2018 00:12 22,0 C 20,6 C 20,6 C 81 % 1018,6 hPa 0,0 l/m 0 min 0 min 0 W/m 13,5 km/h (3 Bft) 97,87 %
05.08.2018 00:14 22,0 C 20,6 C 20,6 C 81 % 1018,7 hPa 0,0 l/m 0 min 0 min 0 W/m 9,0 km/h (2 Bft) 97,87 %
05.08.2018 00:16 21,9 C 20,6 C 20,6 C 81 % 1018,7 hPa 0,0 l/m 0 min 0 min 0 W/m 15,8 km/h (3 Bft) 93,62 %
05.08.2018 00:18 21,9 C 20,6 C 20,6 C 81 % 1018,7 hPa 0,0 l/m 0 min 0 min 0 W/m 6,8 km/h (2 Bft) 97,83 %
05.08.2018 00:20 21,9 C 20,6 C 20,6 C 81 % 1018,7 hPa 0,0 l/m 0 min 0 min 0 W/m 6,8 km/h (2 Bft) 97,87 %
05.08.2018 00:22 21,9 C 20,6 C 20,6 C 82 % 1018,7 hPa 0,0 l/m 0 min 0 min 0 W/m 9,0 km/h (2 Bft) 97,87 %
05.08.2018 00:24 21,9 C 20,6 C 20,6 C 82 % 1018,7 hPa 0,0 l/m 0 min 0 min 0 W/m 4,5 km/h (1 Bft) 95,74 %
05.08.2018 00:26 21,9 C 20,6 C 20,6 C 82 % 1018,7 hPa 0,0 l/m 0 min 0 min 0 W/m 2,3 km/h (1 Bft) 97,87 %
05.08.2018 00:28 21,9 C 20,6 C 20,6 C 82 % 1018,7 hPa 0,0 l/m 0 min 0 min 0 W/m 9,0 km/h (2 Bft) 97,87 %
05.08.2018 00:30 21,8 C 20,6 C 20,6 C 82 % 1018,8 hPa 0,0 l/m 0 min 0 min 0 W/m 9,0 km/h (2 Bft) 97,83 %
05.08.2018 00:32 21,8 C 20,6 C 20,6 C 82 % 1018,8 hPa 0,0 l/m 0 min 0 min 0 W/m 13,5 km/h (3 Bft) 97,96 %
05.08.2018 00:34 21,8 C 20,6 C 20,6 C 82 % 1018,8 hPa 0,0 l/m 0 min 0 min 0 W/m 6,8 km/h (2 Bft) 100,00 %
05.08.2018 00:36 21,8 C 20,6 C 20,6 C 82 % 1018,8 hPa 0,0 l/m 0 min 0 min 0 W/m 6,8 km/h (2 Bft) 100,00 %
05.08.2018 00:38 21,8 C 20,6 C 20,6 C 83 % 1018,8 hPa 0,0 l/m 0 min 0 min 0 W/m 9,0 km/h (2 Bft) 100,00 %
05.08.2018 00:40 21,8 C 20,6 C 20,6 C 82 % 1018,8 hPa 0,0 l/m 0 min 0 min 0 W/m 9,0 km/h (2 Bft) 100,00 %
05.08.2018 00:42 21,7 C 20,6 C 20,6 C 83 % 1018,8 hPa 0,0 l/m 0 min 0 min 0 W/m 11,3 km/h (2 Bft) 97,87 %
05.08.2018 00:44 21,7 C 20,6 C 20,6 C 83 % 1018,8 hPa 0,0 l/m 0 min 0 min 0 W/m 9,0 km/h (2 Bft) 100,00 %
05.08.2018 00:46 21,7 C 20,6 C 20,6 C 83 % 1018,9 hPa 0,0 l/m 0 min 0 min 0 W/m 13,5 km/h (3 Bft) 97,87 %
05.08.2018 00:48 21,7 C 20,6 C 20,6 C 83 % 1018,9 hPa 0,0 l/m 0 min 0 min 0 W/m 9,0 km/h (2 Bft) 100,00 %
05.08.2018 00:50 21,7 C 20,6 C 20,6 C 83 % 1018,9 hPa 0,0 l/m 0 min 0 min 0 W/m 9,0 km/h (2 Bft) 100,00 %
05.08.2018 00:52 21,6 C 20,0 C 20,0 C 83 % 1018,9 hPa 0,0 l/m 0 min 0 min 0 W/m 9,0 km/h (2 Bft) 100,00 %
05.08.2018 00:54 21,6 C 20,0 C 20,0 C 83 % 1018,9 hPa 0,0 l/m 0 min 0 min 0 W/m 9,0 km/h (2 Bft) 95,74 %
05.08.2018 00:56 21,6 C 20,0 C 20,0 C 83 % 1018,9 hPa 0,0 l/m 0 min 0 min 0 W/m 11,3 km/h (2 Bft) 97,87 %
05.08.2018 00:58 21,6 C 20,0 C 20,0 C 83 % 1018,9 hPa 0,0 l/m 0 min 0 min 0 W/m 13,5 km/h (3 Bft) 97,87 %
05.08.2018 01:00 21,5 C 20,0 C 20,0 C 83 % 1018,9 hPa 0,0 l/m 0 min 0 min 0 W/m 4,5 km/h (1 Bft) 97,87 %
05.08.2018 01:02 21,5 C 20,0 C 20,0 C 84 % 1018,9 hPa 0,0 l/m 0 min 0 min 0 W/m 6,8 km/h (2 Bft) 95,83 %
05.08.2018 01:04 21,4 C 20,0 C 20,0 C 84 % 1019,0 hPa 0,0 l/m 0 min 0 min 0 W/m 6,8 km/h (2 Bft) 95,65 %
05.08.2018 01:06 21,4 C 20,0 C 20,0 C 84 % 1019,0 hPa 0,0 l/m 0 min 0 min 0 W/m 6,8 km/h (2 Bft) 97,92 %
05.08.2018 01:08 21,4 C 20,0 C 20,0 C 84 % 1019,0 hPa 0,0 l/m 0 min 0 min 0 W/m 6,8 km/h (2 Bft) 97,87 %
05.08.2018 01:10 21,3 C 20,0 C 20,0 C 84 % 1019,0 hPa 0,0 l/m 0 min 0 min 0 W/m 6,8 km/h (2 Bft) 97,87 %
05.08.2018 01:12 21,3 C 20,0 C 20,0 C 84 % 1019,0 hPa 0,0 l/m 0 min 0 min 0 W/m 13,5 km/h (3 Bft) 95,65 %
05.08.2018 01:14 21,3 C 20,0 C 20,0 C 84 % 1019,0 hPa 0,0 l/m 0 min 0 min 0 W/m 11,3 km/h (2 Bft) 97,87 %
05.08.2018 01:16 21,3 C 20,0 C 20,0 C 84 % 1019,0 hPa 0,0 l/m 0 min 0 min 0 W/m 13,5 km/h (3 Bft) 95,74 %
05.08.2018 01:18 21,2 C 20,0 C 20,0 C 84 % 1019,1 hPa 0,0 l/m 0 min 0 min 0 W/m 11,3 km/h (2 Bft) 97,87 %
05.08.2018 01:20 21,2 C 20,0 C 20,0 C 84 % 1019,1 hPa 0,0 l/m 0 min 0 min 0 W/m 15,8 km/h (3 Bft) 97,87 %
05.08.2018 01:22 21,2 C 20,0 C 20,0 C 84 % 1019,1 hPa 0,0 l/m 0 min 0 min 0 W/m 9,0 km/h (2 Bft) 97,87 %
05.08.2018 01:24 21,1 C 20,0 C 20,0 C 85 % 1019,1 hPa 0,0 l/m 0 min 0 min 0 W/m 6,8 km/h (2 Bft) 97,83 %
05.08.2018 01:26 21,1 C 20,0 C 20,0 C 85 % 1019,1 hPa 0,0 l/m 0 min 0 min 0 W/m 13,5 km/h (3 Bft) 97,87 %
05.08.2018 01:28 21,1 C 20,0 C 20,0 C 85 % 1019,1 hPa 0,0 l/m 0 min 0 min 0 W/m 9,0 km/h (2 Bft) 97,87 %
05.08.2018 01:30 21,1 C 19,4 C 20,0 C 85 % 1019,1 hPa 0,0 l/m 0 min 0 min 0 W/m 4,5 km/h (1 Bft) 97,87 %
05.08.2018 01:32 21,0 C 19,4 C 20,0 C 85 % 1019,1 hPa 0,0 l/m 0 min 0 min 0 W/m 4,5 km/h (1 Bft) 97,92 %
05.08.2018 01:34 21,0 C 19,4 C 19,4 C 85 % 1019,1 hPa 0,0 l/m 0 min 0 min 0 W/m 11,3 km/h (2 Bft) 97,87 %
05.08.2018 01:36 21,0 C 19,4 C 19,4 C 85 % 1019,1 hPa 0,0 l/m 0 min 0 min 0 W/m 11,3 km/h (2 Bft) 95,74 %
05.08.2018 01:38 20,9 C 19,4 C 19,4 C 85 % 1019,2 hPa 0,0 l/m 0 min 0 min 0 W/m 9,0 km/h (2 Bft) 95,74 %
05.08.2018 01:40 20,9 C 19,4 C 19,4 C 85 % 1019,2 hPa 0,0 l/m 0 min 0 min 0 W/m 6,8 km/h (2 Bft) 97,87 %
05.08.2018 01:42 20,9 C 19,4 C 19,4 C 85 % 1019,3 hPa 0,0 l/m 0 min 0 min 0 W/m 11,3 km/h (2 Bft) 97,87 %
05.08.2018 01:44 20,9 C 19,4 C 19,4 C 85 % 1019,2 hPa 0,0 l/m 0 min 0 min 0 W/m 9,0 km/h (2 Bft) 95,74 %
05.08.2018 01:46 20,8 C 19,4 C 19,4 C 85 % 1019,3 hPa 0,0 l/m 0 min 0 min 0 W/m 6,8 km/h (2 Bft) 97,83 %
05.08.2018 01:48 20,8 C 19,4 C 19,4 C 85 % 1019,3 hPa 0,0 l/m 0 min 0 min 0 W/m 4,5 km/h (1 Bft) 97,87 %
05.08.2018 01:50 20,7 C 19,4 C 19,4 C 85 % 1019,3 hPa 0,0 l/m 0 min 0 min 0 W/m 4,5 km/h (1 Bft) 97,87 %
05.08.2018 01:52 20,7 C 19,4 C 19,4 C 85 % 1019,3 hPa 0,0 l/m 0 min 0 min 0 W/m 9,0 km/h (2 Bft) 100,00 %
05.08.2018 01:54 20,7 C 19,4 C 19,4 C 85 % 1019,3 hPa 0,0 l/m 0 min 0 min 0 W/m 2,3 km/h (1 Bft) 97,87 %
05.08.2018 01:56 20,6 C 19,4 C 19,4 C 86 % 1019,3 hPa 0,0 l/m 0 min 0 min 0 W/m 11,3 km/h (2 Bft) 100,00 %
05.08.2018 01:58 20,6 C 19,4 C 19,4 C 86 % 1019,3 hPa 0,0 l/m 0 min 0 min 0 W/m 6,8 km/h (2 Bft) 97,83 %
05.08.2018 02:00 20,6 C 19,4 C 19,4 C 86 % 1019,4 hPa 0,0 l/m 0 min 0 min 0 W/m 2,3 km/h (1 Bft) 100,00 %
05.08.2018 02:02 20,6 C 19,4 C 19,4 C 85 % 1019,4 hPa 0,0 l/m 0 min 0 min 0 W/m 4,5 km/h (1 Bft) 97,92 %
05.08.2018 02:04 20,5 C 18,9 C 19,4 C 85 % 1019,3 hPa 0,0 l/m 0 min 0 min 0 W/m 9,0 km/h (2 Bft) 97,87 %
05.08.2018 02:06 20,5 C 18,9 C 19,4 C 86 % 1019,3 hPa 0,0 l/m 0 min 0 min 0 W/m 6,8 km/h (2 Bft) 100,00 %
05.08.2018 02:08 20,4 C 18,9 C 19,4 C 86 % 1019,4 hPa 0,0 l/m 0 min 0 min 0 W/m 9,0 km/h (2 Bft) 100,00 %
05.08.2018 02:10 20,4 C 18,9 C 19,4 C 86 % 1019,4 hPa 0,0 l/m 0 min 0 min 0 W/m 6,8 km/h (2 Bft) 100,00 %
05.08.2018 02:12 20,4 C 18,9 C 18,9 C 86 % 1019,4 hPa 0,0 l/m 0 min 0 min 0 W/m 0,0 km/h (0 Bft) 97,87 %
05.08.2018 02:14 20,3 C 18,9 C 18,9 C 86 % 1019,4 hPa 0,0 l/m 0 min 0 min 0 W/m 2,3 km/h (1 Bft) 95,74 %
05.08.2018 02:16 20,3 C 18,9 C 18,9 C 86 % 1019,3 hPa 0,0 l/m 0 min 0 min 0 W/m 13,5 km/h (3 Bft) 97,87 %
05.08.2018 02:18 20,3 C 18,9 C 18,9 C 86 % 1019,3 hPa 0,0 l/m 0 min 0 min 0 W/m 11,3 km/h (2 Bft) 95,74 %
05.08.2018 02:20 20,2 C 18,9 C 18,9 C 86 % 1019,3 hPa 0,0 l/m 0 min 0 min 0 W/m 9,0 km/h (2 Bft) 93,62 %
05.08.2018 02:22 20,2 C 18,9 C 18,9 C 86 % 1019,3 hPa 0,0 l/m 0 min 0 min 0 W/m 9,0 km/h (2 Bft) 95,65 %
05.08.2018 02:24 20,2 C 18,9 C 18,9 C 86 % 1019,3 hPa 0,0 l/m 0 min 0 min 0 W/m 11,3 km/h (2 Bft) 97,87 %
05.08.2018 02:26 20,1 C 18,9 C 18,9 C 86 % 1019,3 hPa 0,0 l/m 0 min 0 min 0 W/m 9,0 km/h (2 Bft) 93,62 %
05.08.2018 02:28 20,1 C 18,9 C 18,9 C 86 % 1019,3 hPa 0,0 l/m 0 min 0 min 0 W/m 9,0 km/h (2 Bft) 95,74 %
05.08.2018 02:30 20,1 C 18,9 C 18,9 C 86 % 1019,3 hPa 0,0 l/m 0 min 0 min 0 W/m 11,3 km/h (2 Bft) 95,74 %
05.08.2018 02:32 20,0 C 18,9 C 18,9 C 86 % 1019,3 hPa 0,0 l/m 0 min 0 min 0 W/m 6,8 km/h (2 Bft) 97,92 %
05.08.2018 02:34 20,0 C 18,9 C 18,9 C 86 % 1019,3 hPa 0,0 l/m 0 min 0 min 0 W/m 6,8 km/h (2 Bft) 97,87 %
05.08.2018 02:36 20,0 C 18,9 C 18,9 C 86 % 1019,3 hPa 0,0 l/m 0 min 0 min 0 W/m 4,5 km/h (1 Bft) 95,74 %
05.08.2018 02:38 19,9 C 18,9 C 18,9 C 86 % 1019,4 hPa 0,0 l/m 0 min 0 min 0 W/m 0,0 km/h (0 Bft) 93,62 %
05.08.2018 02:40 19,9 C 18,9 C 18,9 C 86 % 1019,4 hPa 0,0 l/m 0 min 0 min 0 W/m 6,8 km/h (2 Bft) 95,74 %
05.08.2018 02:42 19,9 C 18,9 C 18,9 C 86 % 1019,3 hPa 0,0 l/m 0 min 0 min 0 W/m 9,0 km/h (2 Bft) 95,74 %
05.08.2018 02:44 19,8 C 18,9 C 18,9 C 86 % 1019,4 hPa 0,0 l/m 0 min 0 min 0 W/m 9,0 km/h (2 Bft) 95,65 %
05.08.2018 02:46 19,8 C 18,3 C 18,9 C 86 % 1019,4 hPa 0,0 l/m 0 min 0 min 0 W/m 9,0 km/h (2 Bft) 95,74 %
05.08.2018 02:48 19,8 C 18,3 C 18,9 C 86 % 1019,4 hPa 0,0 l/m 0 min 0 min 0 W/m 6,8 km/h (2 Bft) 95,74 %
05.08.2018 02:50 19,8 C 18,3 C 18,9 C 86 % 1019,3 hPa 0,0 l/m 0 min 0 min 0 W/m 4,5 km/h (1 Bft) 95,74 %
05.08.2018 02:52 19,7 C 18,3 C 18,9 C 87 % 1019,3 hPa 0,0 l/m 0 min 0 min 0 W/m 6,8 km/h (2 Bft) 93,62 %
05.08.2018 02:54 19,7 C 18,3 C 18,9 C 87 % 1019,4 hPa 0,0 l/m 0 min 0 min 0 W/m 9,0 km/h (2 Bft) 95,74 %
05.08.2018 02:56 19,7 C 18,9 C 18,9 C 86 % 1019,3 hPa 0,0 l/m 0 min 0 min 0 W/m 6,8 km/h (2 Bft) 93,48 %
05.08.2018 02:58 19,7 C 18,9 C 18,9 C 87 % 1019,3 hPa 0,0 l/m 0 min 0 min 0 W/m 6,8 km/h (2 Bft) 95,74 %
05.08.2018 03:00 19,7 C 18,9 C 18,9 C 87 % 1019,3 hPa 0,0 l/m 0 min 0 min 0 W/m 4,5 km/h (1 Bft) 95,74 %
05.08.2018 03:02 19,7 C 18,9 C 18,9 C 87 % 1019,3 hPa 0,0 l/m 0 min 0 min 0 W/m 6,8 km/h (2 Bft) 97,87 %
05.08.2018 03:04 19,7 C 18,9 C 18,9 C 87 % 1019,3 hPa 0,0 l/m 0 min 0 min 0 W/m 2,3 km/h (1 Bft) 97,87 %
05.08.2018 03:06 19,7 C 18,9 C 18,9 C 87 % 1019,3 hPa 0,0 l/m 0 min 0 min 0 W/m 11,3 km/h (2 Bft) 95,74 %
05.08.2018 03:08 19,7 C 18,9 C 18,9 C 87 % 1019,3 hPa 0,0 l/m 0 min 0 min 0 W/m 9,0 km/h (2 Bft) 97,83 %
05.08.2018 03:10 19,7 C 18,9 C 18,9 C 87 % 1019,4 hPa 0,0 l/m 0 min 0 min 0 W/m 6,8 km/h (2 Bft) 97,87 %
05.08.2018 03:12 19,7 C 18,9 C 18,9 C 87 % 1019,4 hPa 0,0 l/m 0 min 0 min 0 W/m 11,3 km/h (2 Bft) 97,87 %
05.08.2018 03:14 19,7 C 18,9 C 18,9 C 88 % 1019,4 hPa 0,0 l/m 0 min 0 min 0 W/m 11,3 km/h (2 Bft) 95,74 %
05.08.2018 03:16 19,7 C 18,9 C 18,9 C 88 % 1019,4 hPa 0,0 l/m 0 min 0 min 0 W/m 6,8 km/h (2 Bft) 97,87 %
05.08.2018 03:18 19,7 C 18,9 C 18,9 C 88 % 1019,4 hPa 0,0 l/m 0 min 0 min 0 W/m 9,0 km/h (2 Bft) 97,87 %
05.08.2018 03:20 19,7 C 18,9 C 18,9 C 88 % 1019,4 hPa 0,0 l/m 0 min 0 min 0 W/m 6,8 km/h (2 Bft) 97,83 %
05.08.2018 03:22 19,7 C 18,9 C 18,9 C 88 % 1019,4 hPa 0,0 l/m 0 min 0 min 0 W/m 6,8 km/h (2 Bft) 97,87 %
05.08.2018 03:24 19,7 C 18,9 C 18,9 C 88 % 1019,4 hPa 0,0 l/m 0 min 0 min 0 W/m 9,0 km/h (2 Bft) 97,87 %
05.08.2018 03:26 19,7 C 18,9 C 18,9 C 88 % 1019,4 hPa 0,0 l/m 0 min 0 min 0 W/m 6,8 km/h (2 Bft) 97,87 %
05.08.2018 03:28 19,7 C 18,9 C 18,9 C 88 % 1019,4 hPa 0,0 l/m 0 min 0 min 0 W/m 9,0 km/h (2 Bft) 100,00 %
05.08.2018 03:30 19,7 C 18,9 C 18,9 C 88 % 1019,5 hPa 0,0 l/m 0 min 0 min 0 W/m 11,3 km/h (2 Bft) 100,00 %
05.08.2018 03:32 19,7 C 18,9 C 18,9 C 88 % 1019,4 hPa 0,0 l/m 0 min 0 min 0 W/m 11,3 km/h (2 Bft) 100,00 %
05.08.2018 03:34 19,7 C 18,9 C 18,9 C 88 % 1019,4 hPa 0,0 l/m 0 min 0 min 0 W/m 9,0 km/h (2 Bft) 100,00 %
05.08.2018 03:36 19,7 C 18,9 C 18,9 C 88 % 1019,4 hPa 0,0 l/m 0 min 0 min 0 W/m 11,3 km/h (2 Bft) 100,00 %
05.08.2018 03:38 19,6 C 18,9 C 18,9 C 88 % 1019,4 hPa 0,0 l/m 0 min 0 min 0 W/m 6,8 km/h (2 Bft) 100,00 %
05.08.2018 03:40 19,6 C 18,9 C 18,9 C 88 % 1019,4 hPa 0,0 l/m 0 min 0 min 0 W/m 9,0 km/h (2 Bft) 100,00 %
05.08.2018 03:42 19,6 C 18,9 C 18,9 C 88 % 1019,4 hPa 0,0 l/m 0 min 0 min 0 W/m 11,3 km/h (2 Bft) 100,00 %
05.08.2018 03:44 19,6 C 18,9 C 18,3 C 88 % 1019,4 hPa 0,0 l/m 0 min 0 min 0 W/m 6,8 km/h (2 Bft) 100,00 %
05.08.2018 03:46 19,6 C 18,3 C 18,3 C 88 % 1019,4 hPa 0,0 l/m 0 min 0 min 0 W/m 9,0 km/h (2 Bft) 100,00 %
05.08.2018 03:48 19,6 C 18,3 C 18,3 C 88 % 1019,5 hPa 0,0 l/m 0 min 0 min 0 W/m 2,3 km/h (1 Bft) 100,00 %
05.08.2018 03:50 19,6 C 18,3 C 18,3 C 88 % 1019,5 hPa 0,0 l/m 0 min 0 min 0 W/m 2,3 km/h (1 Bft) 100,00 %
05.08.2018 03:52 19,6 C 18,3 C 18,3 C 88 % 1019,4 hPa 0,0 l/m 0 min 0 min 0 W/m 6,8 km/h (2 Bft) 100,00 %
05.08.2018 03:54 19,5 C 18,3 C 18,3 C 88 % 1019,3 hPa 0,0 l/m 0 min 0 min 0 W/m 6,8 km/h (2 Bft) 100,00 %
05.08.2018 03:56 19,5 C 18,3 C 18,3 C 88 % 1019,4 hPa 0,0 l/m 0 min 0 min 0 W/m 2,3 km/h (1 Bft) 95,74 %
05.08.2018 03:58 19,5 C 18,3 C 18,3 C 88 % 1019,4 hPa 0,0 l/m 0 min 0 min 0 W/m 11,3 km/h (2 Bft) 100,00 %
05.08.2018 04:00 19,4 C 18,3 C 18,3 C 88 % 1019,4 hPa 0,0 l/m 0 min 0 min 0 W/m 9,0 km/h (2 Bft) 100,00 %
05.08.2018 04:02 19,4 C 18,3 C 18,3 C 88 % 1019,4 hPa 0,0 l/m 0 min 0 min 0 W/m 9,0 km/h (2 Bft) 88,89 %
05.08.2018 04:04 19,4 C 18,3 C 18,3 C 88 % 1019,4 hPa 0,0 l/m 0 min 0 min 0 W/m 4,5 km/h (1 Bft) 97,87 %
05.08.2018 04:06 19,4 C 18,3 C 18,3 C 89 % 1019,5 hPa 0,0 l/m 0 min 0 min 0 W/m 4,5 km/h (1 Bft) 100,00 %
05.08.2018 04:08 19,4 C 18,3 C 18,3 C 88 % 1019,5 hPa 0,0 l/m 0 min 0 min 0 W/m 4,5 km/h (1 Bft) 100,00 %
05.08.2018 04:10 19,3 C 18,3 C 18,3 C 89 % 1019,5 hPa 0,0 l/m 0 min 0 min 0 W/m 9,0 km/h (2 Bft) 100,00 %
05.08.2018 04:12 19,3 C 18,3 C 18,3 C 89 % 1019,5 hPa 0,0 l/m 0 min 0 min 0 W/m 6,8 km/h (2 Bft) 100,00 %
05.08.2018 04:14 19,3 C 17,8 C 18,3 C 89 % 1019,5 hPa 0,0 l/m 0 min 0 min 0 W/m 2,3 km/h (1 Bft) 100,00 %
05.08.2018 04:16 19,3 C 17,8 C 18,3 C 89 % 1019,5 hPa 0,0 l/m 0 min 0 min 0 W/m 6,8 km/h (2 Bft) 100,00 %
05.08.2018 04:18 19,3 C 17,8 C 18,3 C 89 % 1019,5 hPa 0,0 l/m 0 min 0 min 0 W/m 2,3 km/h (1 Bft) 100,00 %
05.08.2018 04:20 19,3 C 17,8 C 18,3 C 89 % 1019,5 hPa 0,0 l/m 0 min 0 min 0 W/m 4,5 km/h (1 Bft) 100,00 %
05.08.2018 04:22 19,2 C 17,8 C 18,3 C 89 % 1019,5 hPa 0,0 l/m 0 min 0 min 0 W/m 6,8 km/h (2 Bft) 98,11 %
05.08.2018 04:24 19,2 C 17,8 C 17,8 C 89 % 1019,5 hPa 0,0 l/m 0 min 0 min 0 W/m 11,3 km/h (2 Bft) 100,00 %
05.08.2018 04:26 19,2 C 17,8 C 17,8 C 89 % 1019,5 hPa 0,0 l/m 0 min 0 min 0 W/m 11,3 km/h (2 Bft) 100,00 %
05.08.2018 04:28 19,2 C 17,8 C 17,8 C 90 % 1019,5 hPa 0,0 l/m 0 min 0 min 0 W/m 11,3 km/h (2 Bft) 100,00 %
05.08.2018 04:30 19,1 C 17,8 C 17,8 C 90 % 1019,5 hPa 0,0 l/m 0 min 0 min 0 W/m 4,5 km/h (1 Bft) 100,00 %
05.08.2018 04:32 19,1 C 17,8 C 17,8 C 90 % 1019,5 hPa 0,0 l/m 0 min 0 min 0 W/m 4,5 km/h (1 Bft) 100,00 %
05.08.2018 04:34 19,1 C 17,8 C 17,8 C 90 % 1019,5 hPa 0,0 l/m 0 min 0 min 0 W/m 4,5 km/h (1 Bft) 100,00 %
05.08.2018 04:36 19,1 C 17,8 C 17,8 C 90 % 1019,5 hPa 0,0 l/m 0 min 0 min 0 W/m 4,5 km/h (1 Bft) 100,00 %
05.08.2018 04:38 19,1 C 17,8 C 17,8 C 90 % 1019,5 hPa 0,0 l/m 0 min 0 min 0 W/m 13,5 km/h (3 Bft) 97,87 %
05.08.2018 04:40 19,1 C 17,8 C 17,8 C 90 % 1019,6 hPa 0,0 l/m 0 min 0 min 0 W/m 2,3 km/h (1 Bft) 97,87 %
05.08.2018 04:42 19,0 C 17,8 C 17,8 C 90 % 1019,5 hPa 0,0 l/m 0 min 0 min 0 W/m 2,3 km/h (1 Bft) 97,87 %
05.08.2018 04:44 19,0 C 17,8 C 17,8 C 90 % 1019,5 hPa 0,0 l/m 0 min 0 min 0 W/m 2,3 km/h (1 Bft) 97,87 %
05.08.2018 04:46 18,9 C 17,8 C 17,8 C 90 % 1019,5 hPa 0,0 l/m 0 min 0 min 0 W/m 6,8 km/h (2 Bft) 97,83 %
05.08.2018 04:48 18,9 C 17,8 C 17,8 C 90 % 1019,5 hPa 0,0 l/m 0 min 0 min 0 W/m 9,0 km/h (2 Bft) 97,87 %
05.08.2018 04:50 18,9 C 17,8 C 17,8 C 91 % 1019,5 hPa 0,0 l/m 0 min 0 min 0 W/m 4,5 km/h (1 Bft) 97,87 %
05.08.2018 04:52 18,9 C 17,8 C 17,8 C 91 % 1019,5 hPa 0,0 l/m 0 min 0 min 0 W/m 11,3 km/h (2 Bft) 95,74 %
05.08.2018 04:54 18,9 C 17,8 C 17,8 C 91 % 1019,5 hPa 0,0 l/m 0 min 0 min 0 W/m 9,0 km/h (2 Bft) 100,00 %
05.08.2018 04:56 18,8 C 17,8 C 17,8 C 91 % 1019,6 hPa 0,0 l/m 0 min 0 min 0 W/m 9,0 km/h (2 Bft) 97,87 %
05.08.2018 04:58 18,8 C 17,8 C 17,8 C 91 % 1019,5 hPa 0,0 l/m 0 min 0 min 0 W/m 9,0 km/h (2 Bft) 97,83 %
05.08.2018 05:00 18,8 C 17,8 C 17,8 C 91 % 1019,6 hPa 0,0 l/m 0 min 0 min 0 W/m 9,0 km/h (2 Bft) 97,87 %
05.08.2018 05:02 18,8 C 17,8 C 17,8 C 91 % 1019,6 hPa 0,0 l/m 0 min 0 min 0 W/m 4,5 km/h (1 Bft) 97,87 %
05.08.2018 05:04 18,8 C 17,8 C 17,8 C 91 % 1019,7 hPa 0,0 l/m 0 min 0 min 0 W/m 9,0 km/h (2 Bft) 95,74 %
05.08.2018 05:06 18,7 C 17,2 C 17,8 C 91 % 1019,6 hPa 0,0 l/m 0 min 0 min 0 W/m 9,0 km/h (2 Bft) 93,62 %
05.08.2018 05:08 18,7 C 17,2 C 17,8 C 91 % 1019,6 hPa 0,0 l/m 0 min 0 min 0 W/m 6,8 km/h (2 Bft) 95,74 %
05.08.2018 05:10 18,7 C 17,2 C 17,8 C 91 % 1019,6 hPa 0,0 l/m 0 min 0 min 0 W/m 6,8 km/h (2 Bft) 93,48 %
05.08.2018 05:12 18,7 C 17,2 C 17,8 C 91 % 1019,6 hPa 0,0 l/m 0 min 0 min 0 W/m 4,5 km/h (1 Bft) 95,74 %
05.08.2018 05:14 18,7 C 17,8 C 17,8 C 91 % 1019,6 hPa 0,0 l/m 0 min 0 min 0 W/m 6,8 km/h (2 Bft) 91,49 %
05.08.2018 05:16 18,7 C 17,8 C 17,8 C 91 % 1019,7 hPa 0,0 l/m 0 min 0 min 0 W/m 6,8 km/h (2 Bft) 92,86 %
05.08.2018 05:18 18,6 C 17,8 C 17,8 C 92 % 1019,7 hPa 0,0 l/m 0 min 0 min 0 W/m 9,0 km/h (2 Bft) 93,62 %
05.08.2018 05:20 18,6 C 17,8 C 17,8 C 92 % 1019,7 hPa 0,0 l/m 0 min 0 min 0 W/m 11,3 km/h (2 Bft) 95,74 %
05.08.2018 05:22 18,6 C 17,8 C 17,8 C 92 % 1019,7 hPa 0,0 l/m 0 min 0 min 0 W/m 6,8 km/h (2 Bft) 93,62 %
05.08.2018 05:24 18,6 C 17,8 C 17,8 C 92 % 1019,7 hPa 0,0 l/m 0 min 0 min 0 W/m 2,3 km/h (1 Bft) 93,62 %
05.08.2018 05:26 18,6 C 17,8 C 17,8 C 92 % 1019,7 hPa 0,0 l/m 0 min 0 min 0 W/m 0,0 km/h (0 Bft) 95,74 %
05.08.2018 05:28 18,6 C 17,2 C 17,8 C 92 % 1019,6 hPa 0,0 l/m 0 min 0 min 0 W/m 6,8 km/h (2 Bft) 95,74 %
05.08.2018 05:30 18,6 C 17,2 C 17,8 C 92 % 1019,7 hPa 0,0 l/m 0 min 0 min 0 W/m 2,3 km/h (1 Bft) 93,48 %
05.08.2018 05:32 18,5 C 17,2 C 17,8 C 92 % 1019,6 hPa 0,0 l/m 0 min 0 min 0 W/m 4,5 km/h (1 Bft) 91,67 %
05.08.2018 05:34 18,5 C 17,2 C 17,8 C 92 % 1019,6 hPa 0,0 l/m 0 min 0 min 0 W/m 0,0 km/h (0 Bft) 91,49 %
05.08.2018 05:35 18,5 C 17,2 C 17,2 C 92 % 1019,6 hPa 0,0 l/m 0 min 0 min 0 W/m 4,5 km/h (1 Bft) 93,86 %
05.08.2018 05:40 18,4 C 17,2 C 17,8 C 92 % 1019,7 hPa 0,0 l/m 0 min 0 min 0 W/m 9,0 km/h (2 Bft) 97,14 %
05.08.2018 05:42 18,4 C 17,2 C 17,2 C 92 % 1019,7 hPa 0,0 l/m 0 min 0 min 0 W/m 9,0 km/h (2 Bft) 91,43 %
05.08.2018 05:44 18,4 C 17,2 C 17,2 C 92 % 1019,7 hPa 0,0 l/m 0 min 0 min 0 W/m 6,8 km/h (2 Bft) 96,36 %
05.08.2018 05:46 18,4 C 17,2 C 17,2 C 92 % 1019,7 hPa 0,0 l/m 0 min 0 min 0 W/m 9,0 km/h (2 Bft) 93,62 %
05.08.2018 05:48 18,3 C 17,2 C 17,2 C 92 % 1019,7 hPa 0,0 l/m 0 min 0 min 0 W/m 4,5 km/h (1 Bft) 96,00 %
05.08.2018 05:50 18,3 C 16,7 C 17,2 C 92 % 1019,8 hPa 0,0 l/m 0 min 0 min 0 W/m 9,0 km/h (2 Bft) 95,74 %
05.08.2018 05:52 18,3 C 16,7 C 17,2 C 92 % 1019,7 hPa 0,0 l/m 0 min 0 min 0 W/m 6,8 km/h (2 Bft) 95,83 %
05.08.2018 05:54 18,3 C 16,7 C 17,2 C 92 % 1019,7 hPa 0,0 l/m 0 min 0 min 0 W/m 6,8 km/h (2 Bft) 95,74 %
05.08.2018 05:56 18,3 C 16,7 C 17,2 C 92 % 1019,8 hPa 0,0 l/m 0 min 0 min 0 W/m 4,5 km/h (1 Bft) 91,49 %
05.08.2018 05:58 18,3 C 16,7 C 17,2 C 92 % 1019,8 hPa 0,0 l/m 0 min 0 min 0 W/m 2,3 km/h (1 Bft) 97,14 %
05.08.2018 06:00 18,2 C 16,7 C 17,2 C 92 % 1019,9 hPa 0,0 l/m 0 min 0 min 0 W/m 0,0 km/h (0 Bft) 96,30 %
05.08.2018 06:02 18,2 C 17,2 C 17,2 C 92 % 1019,9 hPa 0,0 l/m 0 min 0 min 0 W/m 6,8 km/h (2 Bft) 96,00 %
05.08.2018 06:04 18,2 C 17,2 C 17,2 C 92 % 1020,0 hPa 0,0 l/m 0 min 0 min 0 W/m 2,3 km/h (1 Bft) 97,87 %
05.08.2018 06:06 18,2 C 17,2 C 17,2 C 92 % 1019,9 hPa 0,0 l/m 0 min 0 min 0 W/m 0,0 km/h (0 Bft) 93,48 %
05.08.2018 06:10 18,2 C 17,2 C 17,2 C 93 % 1020,0 hPa 0,0 l/m 0 min 0 min 2 W/m 2,3 km/h (1 Bft) 100,00 %
05.08.2018 06:14 18,2 C 17,2 C 17,2 C 93 % 1020,0 hPa 0,0 l/m 0 min 0 min 3 W/m 2,3 km/h (1 Bft) 97,35 %
05.08.2018 06:16 18,2 C 17,2 C 17,2 C 93 % 1020,0 hPa 0,0 l/m 0 min 0 min 7 W/m 4,5 km/h (1 Bft) 97,87 %
05.08.2018 06:18 18,2 C 17,2 C 17,2 C 93 % 1020,0 hPa 0,0 l/m 0 min 0 min 7 W/m 4,5 km/h (1 Bft) 97,87 %
05.08.2018 06:22 18,1 C 17,2 C 17,2 C 93 % 1020,0 hPa 0,0 l/m 0 min 0 min 8 W/m 0,0 km/h (0 Bft) 98,96 %
05.08.2018 06:24 18,1 C 17,2 C 17,2 C 93 % 1020,0 hPa 0,0 l/m 0 min 0 min 9 W/m 2,3 km/h (1 Bft) 100,00 %
05.08.2018 06:26 18,1 C 17,2 C 17,2 C 93 % 1020,0 hPa 0,0 l/m 0 min 0 min 11 W/m 0,0 km/h (0 Bft) 100,00 %
05.08.2018 06:28 18,1 C 17,2 C 17,2 C 93 % 1020,1 hPa 0,0 l/m 0 min 0 min 11 W/m 0,0 km/h (0 Bft) 100,00 %
05.08.2018 06:30 18,1 C 17,2 C 17,2 C 93 % 1020,1 hPa 0,0 l/m 0 min 0 min 12 W/m 0,0 km/h (0 Bft) 100,00 %
05.08.2018 06:32 18,1 C 17,2 C 17,2 C 93 % 1020,0 hPa 0,0 l/m 0 min 0 min 14 W/m 2,3 km/h (1 Bft) 97,87 %
05.08.2018 06:34 18,1 C 17,2 C 17,2 C 93 % 1020,1 hPa 0,0 l/m 0 min 0 min 15 W/m 4,5 km/h (1 Bft) 100,00 %
05.08.2018 06:36 18,1 C 16,7 C 17,2 C 93 % 1020,0 hPa 0,0 l/m 0 min 0 min 16 W/m 2,3 km/h (1 Bft) 100,00 %
05.08.2018 06:38 18,1 C 16,7 C 17,2 C 93 % 1020,0 hPa 0,0 l/m 0 min 0 min 18 W/m 2,3 km/h (1 Bft) 100,00 %
05.08.2018 06:40 18,0 C 16,7 C 17,2 C 93 % 1019,9 hPa 0,0 l/m 0 min 0 min 19 W/m 0,0 km/h (0 Bft) 100,00 %
05.08.2018 06:42 18,0 C 16,7 C 17,2 C 93 % 1020,0 hPa 0,0 l/m 0 min 0 min 22 W/m 0,0 km/h (0 Bft) 100,00 %
05.08.2018 06:44 18,0 C 16,7 C 17,2 C 93 % 1020,1 hPa 0,0 l/m 0 min 0 min 25 W/m 2,3 km/h (1 Bft) 100,00 %
05.08.2018 06:46 18,0 C 16,7 C 17,2 C 93 % 1020,0 hPa 0,0 l/m 0 min 0 min 26 W/m 0,0 km/h (0 Bft) 97,87 %
05.08.2018 06:48 18,0 C 16,7 C 17,2 C 93 % 1020,0 hPa 0,0 l/m 0 min 0 min 27 W/m 0,0 km/h (0 Bft) 100,00 %
05.08.2018 06:50 17,9 C 16,7 C 17,2 C 93 % 1020,1 hPa 0,0 l/m 0 min 0 min 28 W/m 2,3 km/h (1 Bft) 100,00 %
05.08.2018 06:52 17,9 C 16,7 C 17,2 C 93 % 1020,2 hPa 0,0 l/m 0 min 0 min 28 W/m 2,3 km/h (1 Bft) 100,00 %
05.08.2018 06:54 17,9 C 16,7 C 17,2 C 93 % 1020,1 hPa 0,0 l/m 0 min 0 min 30 W/m 2,3 km/h (1 Bft) 100,00 %
05.08.2018 06:56 17,9 C 16,7 C 17,2 C 93 % 1020,2 hPa 0,0 l/m 0 min 0 min 30 W/m 2,3 km/h (1 Bft) 100,00 %
05.08.2018 06:58 17,9 C 16,7 C 17,2 C 93 % 1020,3 hPa 0,0 l/m 0 min 0 min 30 W/m 0,0 km/h (0 Bft) 100,00 %
05.08.2018 07:00 17,9 C 16,7 C 17,2 C 93 % 1020,3 hPa 0,0 l/m 0 min 0 min 32 W/m 2,3 km/h (1 Bft) 100,00 %
05.08.2018 07:02 17,9 C 16,7 C 17,2 C 93 % 1020,3 hPa 0,0 l/m 0 min 0 min 33 W/m 6,8 km/h (2 Bft) 100,00 %
05.08.2018 07:04 17,9 C 16,7 C 17,2 C 93 % 1020,4 hPa 0,0 l/m 0 min 0 min 33 W/m 2,3 km/h (1 Bft) 100,00 %
05.08.2018 07:06 17,8 C 16,7 C 17,2 C 93 % 1020,3 hPa 0,0 l/m 0 min 0 min 33 W/m 4,5 km/h (1 Bft) 100,00 %
05.08.2018 07:08 17,8 C 16,7 C 17,2 C 93 % 1020,3 hPa 0,0 l/m 0 min 0 min 36 W/m 4,5 km/h (1 Bft) 100,00 %
05.08.2018 07:10 17,8 C 17,2 C 17,2 C 93 % 1020,4 hPa 0,0 l/m 0 min 0 min 40 W/m 4,5 km/h (1 Bft) 100,00 %
05.08.2018 07:12 17,8 C 17,2 C 17,2 C 94 % 1020,3 hPa 0,0 l/m 0 min 0 min 39 W/m 4,5 km/h (1 Bft) 100,00 %
05.08.2018 07:14 17,8 C 17,2 C 17,2 C 94 % 1020,3 hPa 0,0 l/m 0 min 0 min 38 W/m 6,8 km/h (2 Bft) 100,00 %
05.08.2018 07:16 17,8 C 17,2 C 17,2 C 94 % 1020,3 hPa 0,0 l/m 0 min 0 min 40 W/m 4,5 km/h (1 Bft) 100,00 %
05.08.2018 07:18 17,8 C 17,2 C 17,2 C 94 % 1020,4 hPa 0,0 l/m 0 min 0 min 43 W/m 2,3 km/h (1 Bft) 100,00 %
05.08.2018 07:20 17,8 C 17,2 C 17,2 C 94 % 1020,3 hPa 0,0 l/m 0 min 0 min 46 W/m 2,3 km/h (1 Bft) 100,00 %
05.08.2018 07:22 17,8 C 17,2 C 17,2 C 94 % 1020,3 hPa 0,0 l/m 0 min 0 min 47 W/m 6,8 km/h (2 Bft) 100,00 %
05.08.2018 07:24 17,8 C 17,2 C 17,2 C 94 % 1020,3 hPa 0,0 l/m 0 min 0 min 48 W/m 2,3 km/h (1 Bft) 100,00 %
05.08.2018 07:26 17,8 C 17,2 C 17,2 C 94 % 1020,4 hPa 0,0 l/m 0 min 0 min 49 W/m 2,3 km/h (1 Bft) 100,00 %
05.08.2018 07:28 17,8 C 17,2 C 17,2 C 94 % 1020,4 hPa 0,0 l/m 0 min 0 min 49 W/m 4,5 km/h (1 Bft) 100,00 %
05.08.2018 07:30 17,8 C 17,8 C 17,2 C 94 % 1020,4 hPa 0,0 l/m 0 min 0 min 53 W/m 0,0 km/h (0 Bft) 97,87 %
05.08.2018 07:32 17,8 C 17,8 C 17,2 C 94 % 1020,3 hPa 0,0 l/m 0 min 0 min 57 W/m 2,3 km/h (1 Bft) 100,00 %
05.08.2018 07:34 17,8 C 17,8 C 17,2 C 94 % 1020,4 hPa 0,0 l/m 0 min 0 min 68 W/m 6,8 km/h (2 Bft) 100,00 %
05.08.2018 07:36 17,9 C 17,8 C 17,2 C 94 % 1020,5 hPa 0,0 l/m 0 min 0 min 79 W/m 6,8 km/h (2 Bft) 97,83 %
05.08.2018 07:38 17,9 C 17,8 C 17,2 C 94 % 1020,4 hPa 0,0 l/m 0 min 0 min 71 W/m 9,0 km/h (2 Bft) 100,00 %
05.08.2018 07:40 17,9 C 18,3 C 17,8 C 94 % 1020,4 hPa 0,0 l/m 0 min 0 min 77 W/m 4,5 km/h (1 Bft) 100,00 %
05.08.2018 07:42 17,9 C 18,3 C 17,8 C 94 % 1020,4 hPa 0,0 l/m 0 min 0 min 66 W/m 4,5 km/h (1 Bft) 97,87 %
05.08.2018 07:44 17,9 C 18,3 C 17,8 C 94 % 1020,3 hPa 0,0 l/m 0 min 0 min 60 W/m 2,3 km/h (1 Bft) 100,00 %
05.08.2018 07:46 17,9 C 18,3 C 17,8 C 94 % 1020,4 hPa 0,0 l/m 0 min 0 min 66 W/m 6,8 km/h (2 Bft) 100,00 %
05.08.2018 07:48 18,0 C 18,3 C 17,8 C 95 % 1020,4 hPa 0,0 l/m 0 min 0 min 84 W/m 6,8 km/h (2 Bft) 100,00 %
05.08.2018 07:50 18,0 C 18,3 C 17,8 C 95 % 1020,5 hPa 0,0 l/m 0 min 0 min 103 W/m 4,5 km/h (1 Bft) 100,00 %
05.08.2018 07:52 18,0 C 18,9 C 17,8 C 95 % 1020,4 hPa 0,0 l/m 0 min 0 min 110 W/m 2,3 km/h (1 Bft) 100,00 %
05.08.2018 07:54 18,1 C 18,9 C 17,8 C 95 % 1020,5 hPa 0,0 l/m 0 min 0 min 107 W/m 2,3 km/h (1 Bft) 100,00 %
05.08.2018 07:56 18,1 C 18,9 C 17,8 C 95 % 1020,5 hPa 0,0 l/m 2 min 0 min 145 W/m 9,0 km/h (2 Bft) 97,87 %
05.08.2018 07:58 18,1 C 19,4 C 18,3 C 95 % 1020,5 hPa 0,0 l/m 2 min 0 min 157 W/m 2,3 km/h (1 Bft) 97,87 %
05.08.2018 08:00 18,2 C 19,4 C 18,3 C 95 % 1020,5 hPa 0,0 l/m 0 min 0 min 131 W/m 4,5 km/h (1 Bft) 97,83 %
05.08.2018 08:02 18,2 C 19,4 C 18,3 C 95 % 1020,5 hPa 0,0 l/m 0 min 0 min 116 W/m 6,8 km/h (2 Bft) 97,87 %
05.08.2018 08:04 18,3 C 19,4 C 18,3 C 95 % 1020,6 hPa 0,0 l/m 0 min 0 min 121 W/m 4,5 km/h (1 Bft) 95,74 %
05.08.2018 08:06 18,3 C 19,4 C 18,3 C 95 % 1020,6 hPa 0,0 l/m 0 min 0 min 119 W/m 6,8 km/h (2 Bft) 97,87 %
05.08.2018 08:08 18,3 C 19,4 C 18,3 C 95 % 1020,5 hPa 0,0 l/m 0 min 0 min 102 W/m 6,8 km/h (2 Bft) 95,74 %
05.08.2018 08:10 18,4 C 18,9 C 18,3 C 95 % 1020,6 hPa 0,0 l/m 0 min 0 min 86 W/m 4,5 km/h (1 Bft) 95,74 %
05.08.2018 08:12 18,4 C 18,9 C 18,3 C 95 % 1020,6 hPa 0,0 l/m 0 min 0 min 131 W/m 6,8 km/h (2 Bft) 93,48 %
05.08.2018 08:14 18,4 C 19,4 C 18,3 C 95 % 1020,6 hPa 0,0 l/m 0 min 0 min 138 W/m 4,5 km/h (1 Bft) 97,87 %
05.08.2018 08:16 18,4 C 19,4 C 18,3 C 95 % 1020,7 hPa 0,0 l/m 0 min 0 min 138 W/m 6,8 km/h (2 Bft) 97,87 %
05.08.2018 08:18 18,5 C 19,4 C 18,3 C 95 % 1020,6 hPa 0,0 l/m 0 min 0 min 118 W/m 18,0 km/h (3 Bft) 95,74 %
05.08.2018 08:20 18,5 C 19,4 C 18,3 C 95 % 1020,7 hPa 0,0 l/m 0 min 0 min 145 W/m 11,3 km/h (2 Bft) 95,74 %
05.08.2018 08:22 18,6 C 19,4 C 18,3 C 95 % 1020,7 hPa 0,0 l/m 0 min 0 min 142 W/m 11,3 km/h (2 Bft) 100,00 %
05.08.2018 08:24 18,6 C 19,4 C 18,3 C 95 % 1020,7 hPa 0,0 l/m 0 min 0 min 133 W/m 6,8 km/h (2 Bft) 93,48 %
05.08.2018 08:26 18,6 C 19,4 C 18,3 C 94 % 1020,7 hPa 0,0 l/m 0 min 0 min 127 W/m 9,0 km/h (2 Bft) 93,62 %
05.08.2018 08:28 18,7 C 19,4 C 18,3 C 95 % 1020,7 hPa 0,0 l/m 0 min 0 min 141 W/m 4,5 km/h (1 Bft) 91,49 %
05.08.2018 08:30 18,7 C 19,4 C 18,3 C 94 % 1020,8 hPa 0,0 l/m 0 min 0 min 100 W/m 11,3 km/h (2 Bft) 93,62 %
05.08.2018 08:32 18,7 C 19,4 C 18,3 C 94 % 1020,8 hPa 0,0 l/m 0 min 0 min 106 W/m 11,3 km/h (2 Bft) 92,86 %
05.08.2018 08:34 18,8 C 19,4 C 18,3 C 94 % 1020,7 hPa 0,0 l/m 0 min 0 min 140 W/m 11,3 km/h (2 Bft) 93,62 %
05.08.2018 08:36 18,8 C 19,4 C 18,3 C 94 % 1020,7 hPa 0,0 l/m 0 min 0 min 125 W/m 6,8 km/h (2 Bft) 93,62 %
05.08.2018 08:38 18,8 C 20,0 C 18,3 C 94 % 1020,8 hPa 0,0 l/m 0 min 0 min 145 W/m 4,5 km/h (1 Bft) 91,30 %
05.08.2018 08:40 18,8 C 20,0 C 18,9 C 94 % 1020,8 hPa 0,0 l/m 0 min 0 min 177 W/m 9,0 km/h (2 Bft) 95,74 %
05.08.2018 08:42 18,9 C 20,0 C 18,9 C 93 % 1020,8 hPa 0,0 l/m 0 min 0 min 172 W/m 9,0 km/h (2 Bft) 95,74 %
05.08.2018 08:44 18,9 C 20,0 C 18,9 C 93 % 1020,8 hPa 0,0 l/m 0 min 0 min 145 W/m 2,3 km/h (1 Bft) 95,74 %
05.08.2018 08:46 18,9 C 20,0 C 18,9 C 93 % 1020,8 hPa 0,0 l/m 0 min 0 min 154 W/m 2,3 km/h (1 Bft) 93,62 %
05.08.2018 08:48 19,0 C 20,6 C 18,9 C 93 % 1020,7 hPa 0,0 l/m 2 min 0 min 198 W/m 9,0 km/h (2 Bft) 93,62 %
05.08.2018 08:50 19,1 C 20,6 C 18,9 C 93 % 1020,8 hPa 0,0 l/m 0 min 0 min 192 W/m 6,8 km/h (2 Bft) 96,55 %
05.08.2018 08:52 19,1 C 20,6 C 18,9 C 93 % 1020,7 hPa 0,0 l/m 2 min 0 min 234 W/m 11,3 km/h (2 Bft) 94,29 %
05.08.2018 08:54 19,2 C 20,6 C 18,9 C 92 % 1020,7 hPa 0,0 l/m 2 min 0 min 237 W/m 6,8 km/h (2 Bft) 95,74 %
05.08.2018 08:56 19,2 C 20,6 C 18,9 C 92 % 1020,8 hPa 0,0 l/m 0 min 0 min 138 W/m 4,5 km/h (1 Bft) 93,62 %
05.08.2018 08:58 19,2 C 20,6 C 18,9 C 92 % 1020,8 hPa 0,0 l/m 0 min 0 min 124 W/m 4,5 km/h (1 Bft) 95,74 %
05.08.2018 09:00 19,3 C 20,6 C 19,4 C 92 % 1020,7 hPa 0,0 l/m 0 min 0 min 121 W/m 9,0 km/h (2 Bft) 95,74 %
05.08.2018 09:02 19,3 C 20,6 C 19,4 C 92 % 1020,7 hPa 0,0 l/m 0 min 0 min 116 W/m 9,0 km/h (2 Bft) 95,74 %
05.08.2018 09:04 19,3 C 20,6 C 19,4 C 92 % 1020,7 hPa 0,0 l/m 0 min 0 min 151 W/m 9,0 km/h (2 Bft) 95,74 %
05.08.2018 09:06 19,4 C 20,6 C 19,4 C 92 % 1020,8 hPa 0,0 l/m 2 min 0 min 284 W/m 9,0 km/h (2 Bft) 95,74 %
05.08.2018 09:08 19,4 C 20,6 C 19,4 C 91 % 1020,7 hPa 0,0 l/m 2 min 0 min 324 W/m 4,5 km/h (1 Bft) 93,62 %
05.08.2018 09:10 19,5 C 21,1 C 19,4 C 91 % 1020,7 hPa 0,0 l/m 2 min 0 min 316 W/m 4,5 km/h (1 Bft) 95,74 %
05.08.2018 09:12 19,5 C 20,6 C 19,4 C 90 % 1020,8 hPa 0,0 l/m 2 min 0 min 342 W/m 13,5 km/h (3 Bft) 95,74 %
05.08.2018 09:14 19,6 C 20,6 C 19,4 C 90 % 1020,8 hPa 0,0 l/m 2 min 0 min 352 W/m 11,3 km/h (2 Bft) 93,48 %
05.08.2018 09:16 19,7 C 21,1 C 19,4 C 90 % 1020,8 hPa 0,0 l/m 2 min 0 min 381 W/m 6,8 km/h (2 Bft) 97,87 %
05.08.2018 09:18 19,7 C 21,1 C 19,4 C 90 % 1020,8 hPa 0,0 l/m 2 min 0 min 418 W/m 9,0 km/h (2 Bft) 97,96 %
05.08.2018 09:20 19,8 C 21,1 C 19,4 C 89 % 1020,8 hPa 0,0 l/m 2 min 0 min 463 W/m 11,3 km/h (2 Bft) 98,31 %
05.08.2018 09:22 19,9 C 21,7 C 20,0 C 89 % 1020,8 hPa 0,0 l/m 2 min 0 min 471 W/m 2,3 km/h (1 Bft) 100,00 %
05.08.2018 09:24 19,9 C 22,2 C 20,0 C 89 % 1020,8 hPa 0,0 l/m 2 min 0 min 455 W/m 9,0 km/h (2 Bft) 100,00 %
05.08.2018 09:26 20,0 C 22,2 C 20,0 C 89 % 1020,8 hPa 0,0 l/m 2 min 0 min 478 W/m 15,8 km/h (3 Bft) 100,00 %
05.08.2018 09:28 20,1 C 22,2 C 20,0 C 88 % 1020,8 hPa 0,0 l/m 2 min 0 min 498 W/m 6,8 km/h (2 Bft) 100,00 %
05.08.2018 09:30 20,2 C 22,2 C 20,0 C 88 % 1020,8 hPa 0,0 l/m 2 min 0 min 465 W/m 11,3 km/h (2 Bft) 97,87 %
05.08.2018 09:32 20,3 C 22,2 C 20,0 C 88 % 1020,8 hPa 0,0 l/m 2 min 0 min 424 W/m 11,3 km/h (2 Bft) 97,87 %
05.08.2018 09:34 20,3 C 22,2 C 20,0 C 87 % 1020,8 hPa 0,0 l/m 2 min 0 min 440 W/m 9,0 km/h (2 Bft) 100,00 %
05.08.2018 09:36 20,4 C 22,2 C 20,0 C 87 % 1020,8 hPa 0,0 l/m 2 min 0 min 442 W/m 6,8 km/h (2 Bft) 100,00 %
05.08.2018 09:38 20,5 C 22,2 C 20,6 C 87 % 1020,8 hPa 0,0 l/m 2 min 0 min 474 W/m 4,5 km/h (1 Bft) 100,00 %
05.08.2018 09:40 20,6 C 22,2 C 20,0 C 87 % 1020,8 hPa 0,0 l/m 2 min 0 min 521 W/m 9,0 km/h (2 Bft) 100,00 %
05.08.2018 09:42 20,6 C 22,2 C 20,6 C 86 % 1020,9 hPa 0,0 l/m 2 min 0 min 502 W/m 11,3 km/h (2 Bft) 100,00 %
05.08.2018 09:44 20,7 C 22,2 C 20,0 C 86 % 1020,9 hPa 0,0 l/m 2 min 0 min 476 W/m 9,0 km/h (2 Bft) 100,00 %
05.08.2018 09:46 20,8 C 22,2 C 20,0 C 85 % 1020,9 hPa 0,0 l/m 2 min 0 min 479 W/m 9,0 km/h (2 Bft) 100,00 %
05.08.2018 09:48 20,8 C 22,2 C 20,0 C 85 % 1020,9 hPa 0,0 l/m 2 min 0 min 496 W/m 6,8 km/h (2 Bft) 100,00 %
05.08.2018 09:50 20,9 C 22,2 C 20,0 C 84 % 1020,9 hPa 0,0 l/m 0 min 0 min 221 W/m 6,8 km/h (2 Bft) 100,00 %
05.08.2018 09:52 20,9 C 22,2 C 20,0 C 84 % 1020,9 hPa 0,0 l/m 0 min 0 min 157 W/m 6,8 km/h (2 Bft) 100,00 %
05.08.2018 09:54 21,0 C 22,2 C 20,0 C 84 % 1020,9 hPa 0,0 l/m 2 min 0 min 465 W/m 6,8 km/h (2 Bft) 100,00 %
05.08.2018 09:56 21,0 C 22,8 C 20,0 C 84 % 1020,9 hPa 0,0 l/m 2 min 0 min 464 W/m 11,3 km/h (2 Bft) 97,87 %
05.08.2018 09:58 21,1 C 24,4 C 20,0 C 83 % 1020,9 hPa 0,0 l/m 2 min 0 min 523 W/m 4,5 km/h (1 Bft) 100,00 %
05.08.2018 10:00 21,2 C 25,6 C 20,6 C 83 % 1020,9 hPa 0,0 l/m 2 min 0 min 496 W/m 4,5 km/h (1 Bft) 97,83 %
05.08.2018 10:02 21,2 C 25,6 C 20,6 C 82 % 1020,9 hPa 0,0 l/m 2 min 0 min 521 W/m 11,3 km/h (2 Bft) 98,00 %
05.08.2018 10:04 21,2 C 23,9 C 20,0 C 82 % 1021,0 hPa 0,0 l/m 2 min 0 min 332 W/m 6,8 km/h (2 Bft) 100,00 %
05.08.2018 10:06 21,3 C 22,8 C 20,0 C 82 % 1021,0 hPa 0,0 l/m 0 min 0 min 120 W/m 9,0 km/h (2 Bft) 100,00 %
05.08.2018 10:08 21,3 C 22,8 C 20,0 C 82 % 1021,0 hPa 0,0 l/m 0 min 0 min 206 W/m 9,0 km/h (2 Bft) 100,00 %
05.08.2018 10:10 21,3 C 22,8 C 20,0 C 82 % 1021,0 hPa 0,0 l/m 0 min 0 min 241 W/m 6,8 km/h (2 Bft) 100,00 %
05.08.2018 10:12 21,4 C 22,2 C 20,0 C 82 % 1021,0 hPa 0,0 l/m 2 min 0 min 429 W/m 6,8 km/h (2 Bft) 100,00 %
05.08.2018 10:14 21,4 C 21,7 C 20,0 C 81 % 1020,9 hPa 0,0 l/m 0 min 0 min 81 W/m 9,0 km/h (2 Bft) 100,00 %
05.08.2018 10:16 21,4 C 21,7 C 20,0 C 81 % 1021,0 hPa 0,0 l/m 0 min 0 min 94 W/m 4,5 km/h (1 Bft) 100,00 %
05.08.2018 10:18 21,4 C 22,2 C 20,0 C 81 % 1020,9 hPa 0,0 l/m 2 min 0 min 381 W/m 6,8 km/h (2 Bft) 100,00 %
05.08.2018 10:20 21,5 C 21,7 C 20,0 C 81 % 1021,0 hPa 0,0 l/m 0 min 0 min 184 W/m 6,8 km/h (2 Bft) 100,00 %
05.08.2018 10:22 21,5 C 21,7 C 20,0 C 81 % 1021,0 hPa 0,0 l/m 0 min 0 min 115 W/m 4,5 km/h (1 Bft) 100,00 %
05.08.2018 10:24 21,5 C 22,2 C 20,0 C 80 % 1020,9 hPa 0,0 l/m 0 min 0 min 243 W/m 2,3 km/h (1 Bft) 100,00 %
05.08.2018 10:26 21,6 C 22,8 C 20,0 C 81 % 1021,0 hPa 0,0 l/m 2 min 0 min 540 W/m 6,8 km/h (2 Bft) 100,00 %
05.08.2018 10:28 21,6 C 22,8 C 20,6 C 80 % 1021,0 hPa 0,0 l/m 2 min 0 min 546 W/m 6,8 km/h (2 Bft) 97,87 %
05.08.2018 10:30 21,6 C 23,3 C 20,6 C 80 % 1021,0 hPa 0,0 l/m 2 min 0 min 549 W/m 9,0 km/h (2 Bft) 97,87 %
05.08.2018 10:32 21,7 C 23,3 C 20,6 C 79 % 1021,0 hPa 0,0 l/m 2 min 0 min 532 W/m 9,0 km/h (2 Bft) 97,87 %
05.08.2018 10:34 21,7 C 23,9 C 20,6 C 79 % 1020,9 hPa 0,0 l/m 2 min 0 min 528 W/m 11,3 km/h (2 Bft) 97,87 %
05.08.2018 10:36 21,7 C 25,0 C 20,6 C 78 % 1020,9 hPa 0,0 l/m 2 min 0 min 555 W/m 6,8 km/h (2 Bft) 97,87 %
05.08.2018 10:38 21,8 C 25,6 C 21,1 C 78 % 1020,9 hPa 0,0 l/m 2 min 0 min 558 W/m 15,8 km/h (3 Bft) 97,87 %
05.08.2018 10:40 21,8 C 26,7 C 21,1 C 78 % 1020,9 hPa 0,0 l/m 2 min 0 min 571 W/m 11,3 km/h (2 Bft) 97,87 %
05.08.2018 10:42 21,9 C 28,3 C 21,1 C 78 % 1020,9 hPa 0,0 l/m 2 min 0 min 611 W/m 11,3 km/h (2 Bft) 97,87 %
05.08.2018 10:44 22,0 C 29,4 C 21,1 C 78 % 1020,9 hPa 0,0 l/m 2 min 0 min 636 W/m 9,0 km/h (2 Bft) 97,83 %
05.08.2018 10:46 22,1 C 30,6 C 21,1 C 77 % 1020,8 hPa 0,0 l/m 2 min 0 min 640 W/m 11,3 km/h (2 Bft) 93,62 %
05.08.2018 10:48 22,2 C 30,0 C 21,1 C 75 % 1020,8 hPa 0,0 l/m 2 min 0 min 648 W/m 11,3 km/h (2 Bft) 97,87 %
05.08.2018 10:50 22,3 C 30,0 C 21,1 C 75 % 1020,8 hPa 0,0 l/m 2 min 0 min 657 W/m 11,3 km/h (2 Bft) 97,87 %
05.08.2018 10:52 22,4 C 30,0 C 21,1 C 75 % 1020,7 hPa 0,0 l/m 2 min 0 min 683 W/m 13,5 km/h (3 Bft) 97,92 %
05.08.2018 10:54 22,5 C 31,1 C 21,7 C 75 % 1020,7 hPa 0,0 l/m 2 min 0 min 702 W/m 4,5 km/h (1 Bft) 97,83 %
05.08.2018 10:56 22,7 C 31,1 C 21,7 C 75 % 1020,7 hPa 0,0 l/m 2 min 0 min 705 W/m 15,8 km/h (3 Bft) 97,87 %
05.08.2018 10:58 22,8 C 32,2 C 21,7 C 75 % 1020,7 hPa 0,0 l/m 2 min 0 min 743 W/m 9,0 km/h (2 Bft) 97,87 %
05.08.2018 11:00 22,9 C 32,8 C 22,2 C 74 % 1020,7 hPa 0,0 l/m 2 min 0 min 765 W/m 13,5 km/h (3 Bft) 97,87 %
05.08.2018 11:02 23,2 C 33,3 C 22,2 C 74 % 1020,7 hPa 0,0 l/m 2 min 0 min 762 W/m 18,0 km/h (3 Bft) 93,62 %
05.08.2018 11:04 23,4 C 32,8 C 21,7 C 73 % 1020,7 hPa 0,0 l/m 2 min 0 min 719 W/m 11,3 km/h (2 Bft) 97,87 %
05.08.2018 11:08 23,7 C 29,4 C 21,7 C 71 % 1020,7 hPa 0,0 l/m 4 min 0 min 646 W/m 18,0 km/h (3 Bft) 96,77 %
05.08.2018 11:10 23,8 C 27,2 C 21,7 C 71 % 1020,8 hPa 0,0 l/m 0 min 0 min 234 W/m 6,8 km/h (2 Bft) 97,87 %
05.08.2018 11:12 23,9 C 27,2 C 21,7 C 70 % 1020,9 hPa 0,0 l/m 0 min 0 min 272 W/m 9,0 km/h (2 Bft) 100,00 %
05.08.2018 11:14 23,9 C 26,1 C 21,1 C 69 % 1020,8 hPa 0,0 l/m 0 min 0 min 190 W/m 11,3 km/h (2 Bft) 97,87 %
05.08.2018 11:16 23,9 C 25,0 C 21,1 C 69 % 1020,8 hPa 0,0 l/m 0 min 0 min 164 W/m 6,8 km/h (2 Bft) 95,12 %
05.08.2018 11:18 23,9 C 24,4 C 21,1 C 69 % 1020,7 hPa 0,0 l/m 0 min 0 min 168 W/m 4,5 km/h (1 Bft) 97,87 %
05.08.2018 11:20 23,9 C 26,1 C 21,1 C 69 % 1020,7 hPa 0,0 l/m 0 min 0 min 176 W/m 4,5 km/h (1 Bft) 97,87 %
05.08.2018 11:22 23,9 C 27,8 C 21,7 C 69 % 1020,8 hPa 0,0 l/m 0 min 0 min 176 W/m 11,3 km/h (2 Bft) 97,83 %
05.08.2018 11:24 23,9 C 28,3 C 21,1 C 69 % 1020,8 hPa 0,0 l/m 2 min 0 min 593 W/m 11,3 km/h (2 Bft) 97,87 %
05.08.2018 11:26 23,9 C 27,2 C 21,1 C 69 % 1020,8 hPa 0,0 l/m 0 min 0 min 210 W/m 11,3 km/h (2 Bft) 97,87 %
05.08.2018 11:28 23,9 C 28,3 C 21,7 C 69 % 1020,8 hPa 0,0 l/m 2 min 0 min 495 W/m 9,0 km/h (2 Bft) 97,87 %
05.08.2018 11:30 24,0 C 29,4 C 21,7 C 68 % 1020,8 hPa 0,0 l/m 2 min 0 min 701 W/m 6,8 km/h (2 Bft) 97,87 %
05.08.2018 11:32 24,0 C 27,2 C 21,7 C 68 % 1020,8 hPa 0,0 l/m 2 min 0 min 449 W/m 9,0 km/h (2 Bft) 93,62 %
05.08.2018 11:34 24,1 C 28,3 C 21,7 C 67 % 1020,8 hPa 0,0 l/m 0 min 0 min 162 W/m 9,0 km/h (2 Bft) 95,65 %
05.08.2018 11:36 24,1 C 31,1 C 21,7 C 69 % 1020,8 hPa 0,0 l/m 2 min 0 min 370 W/m 11,3 km/h (2 Bft) 95,74 %
05.08.2018 11:38 24,2 C 31,7 C 21,7 C 68 % 1020,7 hPa 0,0 l/m 2 min 0 min 739 W/m 6,8 km/h (2 Bft) 93,62 %
05.08.2018 11:40 24,3 C 32,8 C 22,2 C 68 % 1020,8 hPa 0,0 l/m 2 min 0 min 741 W/m 6,8 km/h (2 Bft) 93,62 %
05.08.2018 11:42 24,4 C 32,2 C 22,2 C 67 % 1020,7 hPa 0,0 l/m 2 min 0 min 752 W/m 11,3 km/h (2 Bft) 95,74 %
05.08.2018 11:44 24,5 C 32,2 C 22,2 C 67 % 1020,7 hPa 0,0 l/m 2 min 0 min 751 W/m 9,0 km/h (2 Bft) 95,74 %
05.08.2018 11:46 24,7 C 33,9 C 22,8 C 66 % 1020,8 hPa 0,0 l/m 2 min 0 min 766 W/m 11,3 km/h (2 Bft) 95,74 %
05.08.2018 11:48 24,8 C 33,3 C 22,8 C 65 % 1020,7 hPa 0,0 l/m 2 min 0 min 781 W/m 18,0 km/h (3 Bft) 95,74 %
05.08.2018 11:50 25,0 C 34,4 C 22,8 C 65 % 1020,7 hPa 0,0 l/m 2 min 0 min 781 W/m 11,3 km/h (2 Bft) 95,74 %
05.08.2018 11:52 25,1 C 35,0 C 22,8 C 66 % 1020,7 hPa 0,0 l/m 2 min 0 min 788 W/m 6,8 km/h (2 Bft) 93,62 %
05.08.2018 11:54 25,3 C 35,6 C 22,8 C 64 % 1020,8 hPa 0,0 l/m 2 min 0 min 794 W/m 6,8 km/h (2 Bft) 95,74 %
05.08.2018 11:56 25,4 C 35,0 C 22,8 C 63 % 1020,7 hPa 0,0 l/m 2 min 0 min 803 W/m 13,5 km/h (3 Bft) 95,65 %
05.08.2018 11:58 25,6 C 34,4 C 22,8 C 62 % 1020,8 hPa 0,0 l/m 2 min 0 min 806 W/m 9,0 km/h (2 Bft) 95,74 %
05.08.2018 12:00 25,8 C 35,6 C 22,8 C 63 % 1020,7 hPa 0,0 l/m 2 min 0 min 783 W/m 6,8 km/h (2 Bft) 95,74 %
05.08.2018 12:02 25,9 C 35,6 C 22,8 C 61 % 1020,7 hPa 0,0 l/m 2 min 0 min 736 W/m 9,0 km/h (2 Bft) 95,74 %
05.08.2018 12:04 26,0 C 35,0 C 22,8 C 60 % 1020,7 hPa 0,0 l/m 2 min 0 min 779 W/m 9,0 km/h (2 Bft) 93,62 %
05.08.2018 12:06 26,2 C 34,4 C 23,3 C 60 % 1020,7 hPa 0,0 l/m 2 min 0 min 846 W/m 11,3 km/h (2 Bft) 95,74 %
05.08.2018 12:08 26,2 C 30,6 C 22,8 C 59 % 1020,7 hPa 0,0 l/m 2 min 0 min 494 W/m 9,0 km/h (2 Bft) 95,74 %
05.08.2018 12:10 26,2 C 28,3 C 22,8 C 58 % 1020,7 hPa 0,0 l/m 0 min 0 min 181 W/m 9,0 km/h (2 Bft) 93,48 %
05.08.2018 12:12 26,2 C 27,2 C 22,8 C 58 % 1020,7 hPa 0,0 l/m 0 min 0 min 189 W/m 11,3 km/h (2 Bft) 95,74 %
05.08.2018 12:14 26,2 C 30,6 C 22,8 C 59 % 1020,7 hPa 0,0 l/m 2 min 0 min 551 W/m 6,8 km/h (2 Bft) 95,74 %
05.08.2018 12:16 26,2 C 32,8 C 22,8 C 59 % 1020,7 hPa 0,0 l/m 2 min 0 min 852 W/m 9,0 km/h (2 Bft) 95,83 %
05.08.2018 12:18 26,3 C 34,4 C 23,3 C 60 % 1020,7 hPa 0,0 l/m 2 min 0 min 850 W/m 11,3 km/h (2 Bft) 93,62 %
05.08.2018 12:20 26,4 C 34,4 C 23,3 C 60 % 1020,6 hPa 0,0 l/m 2 min 0 min 858 W/m 11,3 km/h (2 Bft) 95,65 %
05.08.2018 12:22 26,4 C 33,9 C 23,3 C 60 % 1020,6 hPa 0,0 l/m 2 min 0 min 858 W/m 9,0 km/h (2 Bft) 93,62 %
05.08.2018 12:24 26,6 C 33,9 C 23,3 C 61 % 1020,7 hPa 0,0 l/m 2 min 0 min 539 W/m 9,0 km/h (2 Bft) 95,74 %
05.08.2018 12:26 26,6 C 30,6 C 23,3 C 59 % 1020,6 hPa 0,0 l/m 2 min 0 min 452 W/m 18,0 km/h (3 Bft) 93,62 %
05.08.2018 12:28 26,5 C 28,9 C 22,8 C 58 % 1020,7 hPa 0,0 l/m 0 min 0 min 215 W/m 11,3 km/h (2 Bft) 97,87 %
05.08.2018 12:30 26,4 C 27,8 C 22,8 C 59 % 1020,6 hPa 0,0 l/m 0 min 0 min 233 W/m 9,0 km/h (2 Bft) 100,00 %
05.08.2018 12:32 26,4 C 27,2 C 22,8 C 59 % 1020,6 hPa 0,0 l/m 0 min 0 min 215 W/m 9,0 km/h (2 Bft) 100,00 %
05.08.2018 12:34 26,3 C 26,1 C 22,2 C 59 % 1020,7 hPa 0,0 l/m 0 min 0 min 174 W/m 13,5 km/h (3 Bft) 100,00 %
05.08.2018 12:36 26,2 C 26,7 C 22,2 C 60 % 1020,6 hPa 0,0 l/m 0 min 0 min 155 W/m 6,8 km/h (2 Bft) 97,87 %
05.08.2018 12:38 26,1 C 29,4 C 22,8 C 59 % 1020,6 hPa 0,0 l/m 0 min 0 min 165 W/m 13,5 km/h (3 Bft) 100,00 %
05.08.2018 12:40 26,0 C 31,1 C 22,8 C 58 % 1020,7 hPa 0,0 l/m 0 min 0 min 165 W/m 13,5 km/h (3 Bft) 100,00 %
05.08.2018 12:42 26,0 C 32,8 C 22,8 C 59 % 1020,7 hPa 0,0 l/m 0 min 0 min 259 W/m 9,0 km/h (2 Bft) 100,00 %
05.08.2018 12:44 26,0 C 33,3 C 22,8 C 58 % 1020,7 hPa 0,0 l/m 0 min 0 min 374 W/m 4,5 km/h (1 Bft) 100,00 %
05.08.2018 12:46 26,1 C 33,9 C 23,3 C 58 % 1020,6 hPa 0,0 l/m 2 min 0 min 398 W/m 9,0 km/h (2 Bft) 97,87 %
05.08.2018 12:48 26,1 C 32,8 C 23,3 C 58 % 1020,6 hPa 0,0 l/m 2 min 0 min 406 W/m 9,0 km/h (2 Bft) 100,00 %
05.08.2018 12:50 26,1 C 33,3 C 23,3 C 58 % 1020,6 hPa 0,0 l/m 0 min 0 min 273 W/m 11,3 km/h (2 Bft) 100,00 %
05.08.2018 12:52 26,2 C 33,9 C 23,9 C 58 % 1020,6 hPa 0,0 l/m 0 min 0 min 193 W/m 9,0 km/h (2 Bft) 100,00 %
05.08.2018 12:54 26,3 C 35,0 C 23,9 C 59 % 1020,5 hPa 0,0 l/m 2 min 0 min 525 W/m 6,8 km/h (2 Bft) 100,00 %
05.08.2018 12:56 26,3 C 35,0 C 23,9 C 58 % 1020,6 hPa 0,0 l/m 2 min 0 min 863 W/m 9,0 km/h (2 Bft) 100,00 %
05.08.2018 12:58 26,4 C 34,4 C 23,9 C 59 % 1020,5 hPa 0,0 l/m 2 min 0 min 843 W/m 11,3 km/h (2 Bft) 100,00 %
05.08.2018 13:00 26,5 C 34,4 C 23,9 C 58 % 1020,4 hPa 0,0 l/m 2 min 0 min 789 W/m 11,3 km/h (2 Bft) 100,00 %
05.08.2018 13:02 26,6 C 33,9 C 23,9 C 57 % 1020,4 hPa 0,0 l/m 2 min 0 min 731 W/m 6,8 km/h (2 Bft) 100,00 %
05.08.2018 13:04 26,7 C 32,8 C 23,9 C 56 % 1020,4 hPa 0,0 l/m 2 min 0 min 655 W/m 18,0 km/h (3 Bft) 97,87 %
05.08.2018 13:06 26,7 C 32,8 C 24,4 C 57 % 1020,4 hPa 0,0 l/m 2 min 0 min 815 W/m 11,3 km/h (2 Bft) 95,65 %
05.08.2018 13:08 26,8 C 32,2 C 24,4 C 56 % 1020,5 hPa 0,0 l/m 2 min 0 min 812 W/m 6,8 km/h (2 Bft) 97,87 %
05.08.2018 13:10 26,8 C 30,0 C 23,9 C 55 % 1020,4 hPa 0,0 l/m 2 min 0 min 797 W/m 9,0 km/h (2 Bft) 97,87 %
05.08.2018 13:12 26,9 C 32,2 C 24,4 C 56 % 1020,3 hPa 0,0 l/m 2 min 0 min 816 W/m 11,3 km/h (2 Bft) 95,74 %
05.08.2018 13:14 26,9 C 32,2 C 24,4 C 55 % 1020,4 hPa 0,0 l/m 2 min 0 min 840 W/m 13,5 km/h (3 Bft) 97,87 %
05.08.2018 13:16 26,9 C 33,3 C 24,4 C 55 % 1020,4 hPa 0,0 l/m 2 min 0 min 826 W/m 6,8 km/h (2 Bft) 97,92 %
05.08.2018 13:18 27,0 C 35,0 C 24,4 C 55 % 1020,3 hPa 0,0 l/m 2 min 0 min 823 W/m 6,8 km/h (2 Bft) 97,83 %
05.08.2018 13:20 27,1 C 35,0 C 24,4 C 55 % 1020,3 hPa 0,0 l/m 2 min 0 min 823 W/m 9,0 km/h (2 Bft) 95,74 %
05.08.2018 13:22 27,1 C 35,0 C 24,4 C 55 % 1020,3 hPa 0,0 l/m 2 min 0 min 824 W/m 9,0 km/h (2 Bft) 95,74 %
05.08.2018 13:24 27,1 C 35,0 C 24,4 C 55 % 1020,3 hPa 0,0 l/m 2 min 0 min 833 W/m 6,8 km/h (2 Bft) 97,87 %
05.08.2018 13:26 27,2 C 33,9 C 24,4 C 55 % 1020,3 hPa 0,0 l/m 2 min 0 min 829 W/m 6,8 km/h (2 Bft) 97,87 %
05.08.2018 13:28 27,2 C 33,9 C 24,4 C 55 % 1020,3 hPa 0,0 l/m 2 min 0 min 835 W/m 6,8 km/h (2 Bft) 97,87 %
05.08.2018 13:30 27,2 C 32,8 C 24,4 C 54 % 1020,3 hPa 0,0 l/m 2 min 0 min 836 W/m 11,3 km/h (2 Bft) 97,83 %
05.08.2018 13:32 27,2 C 31,7 C 24,4 C 54 % 1020,2 hPa 0,0 l/m 2 min 0 min 823 W/m 9,0 km/h (2 Bft) 98,00 %
05.08.2018 13:34 27,2 C 30,6 C 24,4 C 53 % 1020,2 hPa 0,0 l/m 2 min 0 min 822 W/m 9,0 km/h (2 Bft) 95,74 %
05.08.2018 13:36 27,2 C 29,4 C 24,4 C 54 % 1020,1 hPa 0,0 l/m 2 min 0 min 824 W/m 9,0 km/h (2 Bft) 97,87 %
05.08.2018 13:38 27,2 C 28,9 C 24,4 C 53 % 1020,1 hPa 0,0 l/m 2 min 0 min 826 W/m 6,8 km/h (2 Bft) 97,83 %
05.08.2018 13:40 27,2 C 28,9 C 24,4 C 53 % 1020,1 hPa 0,0 l/m 2 min 0 min 832 W/m 6,8 km/h (2 Bft) 95,74 %
05.08.2018 13:42 27,2 C 27,8 C 24,4 C 52 % 1020,0 hPa 0,0 l/m 2 min 0 min 833 W/m 6,8 km/h (2 Bft) 97,87 %
05.08.2018 13:44 27,2 C 27,2 C 24,4 C 53 % 1020,0 hPa 0,0 l/m 2 min 0 min 832 W/m 6,8 km/h (2 Bft) 95,74 %
05.08.2018 13:46 27,2 C 27,2 C 24,4 C 53 % 1020,1 hPa 0,0 l/m 2 min 0 min 829 W/m 6,8 km/h (2 Bft) 100,00 %
05.08.2018 13:48 27,2 C 27,2 C 24,4 C 52 % 1020,1 hPa 0,0 l/m 2 min 0 min 826 W/m 11,3 km/h (2 Bft) 100,00 %
05.08.2018 13:50 27,2 C 27,2 C 25,0 C 53 % 1020,1 hPa 0,0 l/m 2 min 0 min 822 W/m 9,0 km/h (2 Bft) 100,00 %
05.08.2018 13:52 27,2 C 27,2 C 25,0 C 52 % 1020,1 hPa 0,0 l/m 2 min 0 min 829 W/m 11,3 km/h (2 Bft) 97,87 %
05.08.2018 13:54 27,2 C 27,2 C 25,0 C 53 % 1020,1 hPa 0,0 l/m 2 min 0 min 833 W/m 9,0 km/h (2 Bft) 100,00 %
05.08.2018 13:56 27,2 C 26,7 C 25,0 C 51 % 1020,2 hPa 0,0 l/m 2 min 0 min 835 W/m 13,5 km/h (3 Bft) 100,00 %
05.08.2018 13:58 27,2 C 26,7 C 25,0 C 52 % 1020,1 hPa 0,0 l/m 2 min 0 min 840 W/m 11,3 km/h (2 Bft) 100,00 %
05.08.2018 14:00 27,2 C 26,7 C 24,4 C 52 % 1020,0 hPa 0,0 l/m 2 min 0 min 821 W/m 4,5 km/h (1 Bft) 97,87 %
05.08.2018 14:02 27,2 C 26,7 C 24,4 C 52 % 1020,1 hPa 0,0 l/m 2 min 0 min 813 W/m 11,3 km/h (2 Bft) 100,00 %
05.08.2018 14:04 27,1 C 26,1 C 24,4 C 53 % 1020,0 hPa 0,0 l/m 2 min 0 min 825 W/m 9,0 km/h (2 Bft) 100,00 %
05.08.2018 14:06 27,2 C 26,7 C 24,4 C 54 % 1020,0 hPa 0,0 l/m 2 min 0 min 830 W/m 9,0 km/h (2 Bft) 100,00 %
05.08.2018 14:08 27,1 C 26,7 C 25,0 C 52 % 1020,0 hPa 0,0 l/m 2 min 0 min 831 W/m 18,0 km/h (3 Bft) 100,00 %
05.08.2018 14:10 27,1 C 26,7 C 25,0 C 52 % 1020,0 hPa 0,0 l/m 2 min 0 min 832 W/m 18,0 km/h (3 Bft) 100,00 %
05.08.2018 14:12 27,1 C 26,7 C 25,0 C 52 % 1020,0 hPa 0,0 l/m 2 min 0 min 835 W/m 9,0 km/h (2 Bft) 100,00 %
05.08.2018 14:14 27,1 C 26,7 C 25,0 C 52 % 1020,0 hPa 0,0 l/m 2 min 0 min 831 W/m 11,3 km/h (2 Bft) 100,00 %
05.08.2018 14:16 27,1 C 26,7 C 25,0 C 52 % 1020,0 hPa 0,0 l/m 2 min 0 min 835 W/m 15,8 km/h (3 Bft) 100,00 %
05.08.2018 14:18 27,1 C 26,7 C 25,0 C 51 % 1020,1 hPa 0,0 l/m 2 min 0 min 841 W/m 6,8 km/h (2 Bft) 97,87 %
05.08.2018 14:20 27,1 C 26,7 C 25,0 C 51 % 1020,1 hPa 0,0 l/m 2 min 0 min 844 W/m 11,3 km/h (2 Bft) 100,00 %
05.08.2018 14:22 27,1 C 26,7 C 25,0 C 52 % 1020,0 hPa 0,0 l/m 2 min 0 min 837 W/m 9,0 km/h (2 Bft) 97,87 %
05.08.2018 14:24 27,1 C 26,7 C 25,0 C 51 % 1020,1 hPa 0,0 l/m 2 min 0 min 834 W/m 11,3 km/h (2 Bft) 100,00 %
05.08.2018 14:26 27,1 C 26,7 C 25,0 C 50 % 1020,1 hPa 0,0 l/m 2 min 0 min 830 W/m 11,3 km/h (2 Bft) 97,87 %
05.08.2018 14:28 27,1 C 26,7 C 25,0 C 51 % 1020,1 hPa 0,0 l/m 2 min 0 min 831 W/m 11,3 km/h (2 Bft) 97,83 %
05.08.2018 14:30 27,1 C 26,7 C 25,0 C 51 % 1020,1 hPa 0,0 l/m 2 min 0 min 835 W/m 9,0 km/h (2 Bft) 100,00 %
05.08.2018 14:32 27,1 C 27,2 C 25,0 C 52 % 1020,0 hPa 0,0 l/m 2 min 0 min 832 W/m 13,5 km/h (3 Bft) 97,92 %
05.08.2018 14:34 27,1 C 26,7 C 25,0 C 52 % 1020,0 hPa 0,0 l/m 2 min 0 min 832 W/m 9,0 km/h (2 Bft) 100,00 %
05.08.2018 14:36 27,1 C 27,2 C 25,0 C 52 % 1020,0 hPa 0,0 l/m 2 min 0 min 831 W/m 11,3 km/h (2 Bft) 95,74 %
05.08.2018 14:38 27,1 C 27,2 C 25,0 C 52 % 1020,0 hPa 0,0 l/m 2 min 0 min 832 W/m 9,0 km/h (2 Bft) 100,00 %
05.08.2018 14:40 27,1 C 27,2 C 25,0 C 53 % 1020,0 hPa 0,0 l/m 2 min 0 min 831 W/m 6,8 km/h (2 Bft) 97,83 %
05.08.2018 14:42 27,1 C 27,2 C 25,6 C 52 % 1020,0 hPa 0,0 l/m 2 min 0 min 830 W/m 6,8 km/h (2 Bft) 100,00 %
05.08.2018 14:44 27,2 C 27,2 C 25,6 C 53 % 1019,9 hPa 0,0 l/m 2 min 0 min 816 W/m 9,0 km/h (2 Bft) 100,00 %
05.08.2018 14:46 27,2 C 27,2 C 25,6 C 51 % 1019,9 hPa 0,0 l/m 2 min 0 min 821 W/m 11,3 km/h (2 Bft) 97,92 %
05.08.2018 14:48 27,2 C 26,7 C 25,0 C 51 % 1019,9 hPa 0,0 l/m 2 min 0 min 822 W/m 13,5 km/h (3 Bft) 97,87 %
05.08.2018 14:50 27,2 C 26,7 C 25,0 C 50 % 1019,9 hPa 0,0 l/m 2 min 0 min 821 W/m 11,3 km/h (2 Bft) 95,74 %
05.08.2018 14:52 27,2 C 27,2 C 25,0 C 51 % 1019,7 hPa 0,0 l/m 2 min 0 min 822 W/m 11,3 km/h (2 Bft) 95,65 %
05.08.2018 14:54 27,2 C 27,2 C 25,0 C 50 % 1019,8 hPa 0,0 l/m 2 min 0 min 819 W/m 18,0 km/h (3 Bft) 95,74 %
05.08.2018 14:56 27,2 C 27,2 C 25,0 C 50 % 1019,7 hPa 0,0 l/m 2 min 0 min 819 W/m 15,8 km/h (3 Bft) 95,74 %
05.08.2018 14:58 27,2 C 27,2 C 25,0 C 51 % 1019,7 hPa 0,0 l/m 2 min 0 min 820 W/m 9,0 km/h (2 Bft) 95,74 %
05.08.2018 15:00 27,2 C 27,2 C 25,0 C 50 % 1019,7 hPa 0,0 l/m 2 min 0 min 821 W/m 11,3 km/h (2 Bft) 95,74 %
05.08.2018 15:02 27,3 C 27,2 C 25,6 C 51 % 1019,7 hPa 0,0 l/m 2 min 0 min 819 W/m 13,5 km/h (3 Bft) 95,74 %
05.08.2018 15:04 27,3 C 27,2 C 25,0 C 49 % 1019,7 hPa 0,0 l/m 2 min 0 min 818 W/m 9,0 km/h (2 Bft) 93,48 %
05.08.2018 15:06 27,3 C 27,2 C 25,0 C 50 % 1019,7 hPa 0,0 l/m 2 min 0 min 818 W/m 9,0 km/h (2 Bft) 93,62 %
05.08.2018 15:08 27,3 C 27,2 C 25,0 C 50 % 1019,6 hPa 0,0 l/m 2 min 0 min 811 W/m 11,3 km/h (2 Bft) 95,74 %
05.08.2018 15:10 27,3 C 27,2 C 25,6 C 51 % 1019,7 hPa 0,0 l/m 2 min 0 min 810 W/m 13,5 km/h (3 Bft) 95,74 %
05.08.2018 15:12 27,4 C 27,2 C 25,6 C 49 % 1019,7 hPa 0,0 l/m 2 min 0 min 811 W/m 15,8 km/h (3 Bft) 95,74 %
05.08.2018 15:14 27,4 C 27,2 C 25,6 C 49 % 1019,7 hPa 0,0 l/m 2 min 0 min 806 W/m 9,0 km/h (2 Bft) 95,74 %
05.08.2018 15:16 27,4 C 27,2 C 25,6 C 50 % 1019,6 hPa 0,0 l/m 2 min 0 min 805 W/m 9,0 km/h (2 Bft) 95,74 %
05.08.2018 15:18 27,4 C 27,2 C 25,6 C 49 % 1019,6 hPa 0,0 l/m 2 min 0 min 803 W/m 18,0 km/h (3 Bft) 93,62 %
05.08.2018 15:20 27,4 C 27,2 C 25,6 C 50 % 1019,6 hPa 0,0 l/m 2 min 0 min 803 W/m 11,3 km/h (2 Bft) 95,74 %
05.08.2018 15:22 27,4 C 27,2 C 25,6 C 49 % 1019,6 hPa 0,0 l/m 2 min 0 min 800 W/m 11,3 km/h (2 Bft) 95,74 %
05.08.2018 15:24 27,4 C 27,2 C 25,6 C 50 % 1019,6 hPa 0,0 l/m 2 min 0 min 799 W/m 11,3 km/h (2 Bft) 95,74 %
05.08.2018 15:26 27,5 C 27,2 C 25,0 C 50 % 1019,6 hPa 0,0 l/m 2 min 0 min 794 W/m 13,5 km/h (3 Bft) 95,65 %
05.08.2018 15:28 27,5 C 27,2 C 25,6 C 51 % 1019,6 hPa 0,0 l/m 2 min 0 min 792 W/m 4,5 km/h (1 Bft) 93,62 %
05.08.2018 15:30 27,6 C 27,8 C 25,6 C 51 % 1019,6 hPa 0,0 l/m 2 min 0 min 792 W/m 9,0 km/h (2 Bft) 95,74 %
05.08.2018 15:32 27,6 C 27,8 C 25,6 C 50 % 1019,5 hPa 0,0 l/m 2 min 0 min 789 W/m 13,5 km/h (3 Bft) 93,75 %
05.08.2018 15:34 27,6 C 27,8 C 25,6 C 51 % 1019,4 hPa 0,0 l/m 2 min 0 min 788 W/m 9,0 km/h (2 Bft) 91,49 %
05.08.2018 15:36 27,6 C 27,8 C 25,6 C 49 % 1019,5 hPa 0,0 l/m 2 min 0 min 781 W/m 13,5 km/h (3 Bft) 91,49 %
05.08.2018 15:38 27,6 C 27,8 C 25,6 C 49 % 1019,5 hPa 0,0 l/m 2 min 0 min 783 W/m 6,8 km/h (2 Bft) 93,48 %
05.08.2018 15:40 27,7 C 27,8 C 25,6 C 50 % 1019,4 hPa 0,0 l/m 2 min 0 min 781 W/m 6,8 km/h (2 Bft) 93,62 %
05.08.2018 15:42 27,7 C 28,3 C 25,6 C 49 % 1019,4 hPa 0,0 l/m 2 min 0 min 778 W/m 13,5 km/h (3 Bft) 93,62 %
05.08.2018 15:44 27,7 C 27,8 C 25,6 C 49 % 1019,5 hPa 0,0 l/m 2 min 0 min 775 W/m 9,0 km/h (2 Bft) 95,74 %
05.08.2018 15:46 27,8 C 27,8 C 25,6 C 49 % 1019,5 hPa 0,0 l/m 2 min 0 min 772 W/m 18,0 km/h (3 Bft) 95,83 %
05.08.2018 15:48 27,8 C 28,3 C 25,6 C 49 % 1019,4 hPa 0,0 l/m 2 min 0 min 767 W/m 15,8 km/h (3 Bft) 95,74 %
05.08.2018 15:50 27,8 C 27,8 C 25,6 C 48 % 1019,4 hPa 0,0 l/m 2 min 0 min 763 W/m 9,0 km/h (2 Bft) 93,48 %
05.08.2018 15:52 27,8 C 28,3 C 25,6 C 49 % 1019,3 hPa 0,0 l/m 2 min 0 min 764 W/m 6,8 km/h (2 Bft) 95,74 %
05.08.2018 15:54 27,9 C 28,3 C 25,6 C 49 % 1019,3 hPa 0,0 l/m 2 min 0 min 761 W/m 15,8 km/h (3 Bft) 95,74 %
05.08.2018 15:56 27,9 C 28,9 C 25,6 C 49 % 1019,3 hPa 0,0 l/m 2 min 0 min 758 W/m 11,3 km/h (2 Bft) 95,74 %
05.08.2018 15:58 27,9 C 28,9 C 25,6 C 49 % 1019,3 hPa 0,0 l/m 2 min 0 min 755 W/m 22,5 km/h (4 Bft) 93,62 %
05.08.2018 16:00 27,9 C 28,9 C 25,6 C 49 % 1019,3 hPa 0,0 l/m 2 min 0 min 752 W/m 9,0 km/h (2 Bft) 93,48 %
05.08.2018 16:02 28,0 C 28,3 C 25,6 C 48 % 1019,3 hPa 0,0 l/m 2 min 0 min 750 W/m 11,3 km/h (2 Bft) 97,87 %
05.08.2018 16:04 28,0 C 28,3 C 25,6 C 48 % 1019,2 hPa 0,0 l/m 2 min 0 min 748 W/m 6,8 km/h (2 Bft) 97,87 %
05.08.2018 16:06 28,0 C 27,8 C 25,6 C 47 % 1019,2 hPa 0,0 l/m 2 min 0 min 742 W/m 9,0 km/h (2 Bft) 97,87 %
05.08.2018 16:08 28,1 C 28,3 C 25,6 C 48 % 1019,1 hPa 0,0 l/m 2 min 0 min 743 W/m 15,8 km/h (3 Bft) 97,87 %
05.08.2018 16:10 28,1 C 28,9 C 25,6 C 49 % 1019,1 hPa 0,0 l/m 2 min 0 min 740 W/m 9,0 km/h (2 Bft) 97,87 %
05.08.2018 16:12 28,1 C 28,9 C 25,6 C 48 % 1019,1 hPa 0,0 l/m 2 min 0 min 737 W/m 11,3 km/h (2 Bft) 97,83 %
05.08.2018 16:14 28,1 C 29,4 C 25,6 C 48 % 1019,0 hPa 0,0 l/m 2 min 0 min 731 W/m 9,0 km/h (2 Bft) 93,62 %
05.08.2018 16:16 28,1 C 30,6 C 25,6 C 48 % 1019,1 hPa 0,0 l/m 2 min 0 min 728 W/m 6,8 km/h (2 Bft) 100,00 %
05.08.2018 16:18 28,1 C 32,2 C 25,6 C 48 % 1019,1 hPa 0,0 l/m 2 min 0 min 725 W/m 11,3 km/h (2 Bft) 100,00 %
05.08.2018 16:20 28,2 C 32,8 C 25,6 C 49 % 1019,1 hPa 0,0 l/m 2 min 0 min 723 W/m 13,5 km/h (3 Bft) 100,00 %
05.08.2018 16:22 28,2 C 32,8 C 25,6 C 49 % 1019,1 hPa 0,0 l/m 2 min 0 min 720 W/m 11,3 km/h (2 Bft) 100,00 %
05.08.2018 16:24 28,2 C 32,2 C 25,6 C 48 % 1019,1 hPa 0,0 l/m 2 min 0 min 718 W/m 11,3 km/h (2 Bft) 97,83 %
05.08.2018 16:26 28,2 C 32,2 C 25,6 C 48 % 1019,1 hPa 0,0 l/m 2 min 0 min 715 W/m 13,5 km/h (3 Bft) 97,87 %
05.08.2018 16:28 28,2 C 32,2 C 25,6 C 47 % 1019,1 hPa 0,0 l/m 2 min 0 min 713 W/m 11,3 km/h (2 Bft) 100,00 %
05.08.2018 16:30 28,3 C 32,2 C 25,6 C 47 % 1019,1 hPa 0,0 l/m 2 min 0 min 710 W/m 15,8 km/h (3 Bft) 100,00 %
05.08.2018 16:32 28,3 C 32,8 C 25,6 C 48 % 1019,0 hPa 0,0 l/m 2 min 0 min 709 W/m 9,0 km/h (2 Bft) 97,92 %
05.08.2018 16:34 28,3 C 32,2 C 25,6 C 48 % 1019,0 hPa 0,0 l/m 2 min 0 min 702 W/m 18,0 km/h (3 Bft) 100,00 %
05.08.2018 16:36 28,3 C 31,7 C 25,6 C 48 % 1019,0 hPa 0,0 l/m 2 min 0 min 695 W/m 13,5 km/h (3 Bft) 97,83 %
05.08.2018 16:38 28,3 C 31,7 C 25,6 C 48 % 1018,9 hPa 0,0 l/m 2 min 0 min 693 W/m 11,3 km/h (2 Bft) 100,00 %
05.08.2018 16:40 28,3 C 31,7 C 25,6 C 47 % 1018,9 hPa 0,0 l/m 2 min 0 min 689 W/m 13,5 km/h (3 Bft) 100,00 %
05.08.2018 16:42 28,3 C 31,1 C 25,6 C 48 % 1019,0 hPa 0,0 l/m 2 min 0 min 685 W/m 11,3 km/h (2 Bft) 100,00 %
05.08.2018 16:44 28,3 C 31,1 C 25,6 C 48 % 1018,9 hPa 0,0 l/m 2 min 0 min 684 W/m 9,0 km/h (2 Bft) 100,00 %
05.08.2018 16:46 28,3 C 31,1 C 25,6 C 48 % 1018,9 hPa 0,0 l/m 2 min 0 min 680 W/m 9,0 km/h (2 Bft) 97,87 %
05.08.2018 16:48 28,3 C 31,7 C 25,6 C 49 % 1018,9 hPa 0,0 l/m 2 min 0 min 676 W/m 9,0 km/h (2 Bft) 100,00 %
05.08.2018 16:50 28,3 C 31,1 C 25,6 C 49 % 1018,9 hPa 0,0 l/m 2 min 0 min 670 W/m 11,3 km/h (2 Bft) 100,00 %
05.08.2018 16:52 28,3 C 31,1 C 25,6 C 49 % 1018,8 hPa 0,0 l/m 2 min 0 min 666 W/m 15,8 km/h (3 Bft) 100,00 %
05.08.2018 16:54 28,4 C 30,6 C 26,1 C 48 % 1018,9 hPa 0,0 l/m 2 min 0 min 655 W/m 11,3 km/h (2 Bft) 100,00 %
05.08.2018 16:56 28,4 C 30,6 C 26,1 C 49 % 1018,9 hPa 0,0 l/m 2 min 0 min 657 W/m 11,3 km/h (2 Bft) 100,00 %
05.08.2018 16:58 28,4 C 30,6 C 25,6 C 48 % 1018,9 hPa 0,0 l/m 2 min 0 min 655 W/m 11,3 km/h (2 Bft) 100,00 %
05.08.2018 17:00 28,4 C 30,6 C 26,1 C 48 % 1018,9 hPa 0,0 l/m 2 min 0 min 650 W/m 13,5 km/h (3 Bft) 100,00 %
05.08.2018 17:02 28,4 C 30,0 C 25,6 C 47 % 1018,9 hPa 0,0 l/m 2 min 0 min 646 W/m 15,8 km/h (3 Bft) 100,00 %
05.08.2018 17:04 28,4 C 29,4 C 25,6 C 47 % 1018,9 hPa 0,0 l/m 2 min 0 min 642 W/m 13,5 km/h (3 Bft) 100,00 %
05.08.2018 17:06 28,4 C 29,4 C 25,6 C 48 % 1018,8 hPa 0,0 l/m 2 min 0 min 638 W/m 13,5 km/h (3 Bft) 100,00 %
05.08.2018 17:08 28,4 C 29,4 C 25,6 C 48 % 1018,8 hPa 0,0 l/m 2 min 0 min 635 W/m 2,3 km/h (1 Bft) 100,00 %
05.08.2018 17:10 28,4 C 30,0 C 26,1 C 48 % 1018,8 hPa 0,0 l/m 2 min 0 min 631 W/m 11,3 km/h (2 Bft) 97,87 %
05.08.2018 17:12 28,4 C 30,0 C 26,1 C 47 % 1018,7 hPa 0,0 l/m 2 min 0 min 626 W/m 15,8 km/h (3 Bft) 100,00 %
05.08.2018 17:14 28,4 C 30,0 C 26,1 C 47 % 1018,8 hPa 0,0 l/m 2 min 0 min 622 W/m 9,0 km/h (2 Bft) 100,00 %
05.08.2018 17:16 28,4 C 30,0 C 26,1 C 47 % 1018,8 hPa 0,0 l/m 2 min 0 min 616 W/m 6,8 km/h (2 Bft) 100,00 %
05.08.2018 17:18 28,4 C 30,0 C 26,1 C 47 % 1018,7 hPa 0,0 l/m 2 min 0 min 615 W/m 13,5 km/h (3 Bft) 100,00 %
05.08.2018 17:20 28,4 C 30,0 C 26,1 C 46 % 1018,7 hPa 0,0 l/m 2 min 0 min 610 W/m 6,8 km/h (2 Bft) 100,00 %
05.08.2018 17:22 28,4 C 30,0 C 26,1 C 48 % 1018,7 hPa 0,0 l/m 2 min 0 min 603 W/m 11,3 km/h (2 Bft) 100,00 %
05.08.2018 17:24 28,4 C 30,0 C 26,1 C 47 % 1018,7 hPa 0,0 l/m 2 min 0 min 596 W/m 11,3 km/h (2 Bft) 100,00 %
05.08.2018 17:26 28,4 C 30,0 C 26,1 C 47 % 1018,7 hPa 0,0 l/m 2 min 0 min 593 W/m 9,0 km/h (2 Bft) 100,00 %
05.08.2018 17:28 28,4 C 29,4 C 25,6 C 47 % 1018,6 hPa 0,0 l/m 2 min 0 min 590 W/m 13,5 km/h (3 Bft) 100,00 %
05.08.2018 17:30 28,4 C 28,9 C 26,1 C 47 % 1018,6 hPa 0,0 l/m 2 min 0 min 586 W/m 11,3 km/h (2 Bft) 100,00 %
05.08.2018 17:32 28,4 C 28,9 C 26,1 C 48 % 1018,6 hPa 0,0 l/m 2 min 0 min 581 W/m 11,3 km/h (2 Bft) 100,00 %
05.08.2018 17:34 28,4 C 28,3 C 26,1 C 47 % 1018,6 hPa 0,0 l/m 2 min 0 min 576 W/m 6,8 km/h (2 Bft) 100,00 %
05.08.2018 17:36 28,4 C 28,3 C 26,1 C 47 % 1018,6 hPa 0,0 l/m 2 min 0 min 571 W/m 11,3 km/h (2 Bft) 97,83 %
05.08.2018 17:38 28,4 C 28,3 C 26,1 C 47 % 1018,6 hPa 0,0 l/m 2 min 0 min 565 W/m 13,5 km/h (3 Bft) 100,00 %
05.08.2018 17:40 28,4 C 28,3 C 26,1 C 46 % 1018,6 hPa 0,0 l/m 2 min 0 min 562 W/m 13,5 km/h (3 Bft) 100,00 %
05.08.2018 17:42 28,4 C 28,3 C 26,1 C 47 % 1018,6 hPa 0,0 l/m 2 min 0 min 557 W/m 6,8 km/h (2 Bft) 97,87 %
05.08.2018 17:44 28,4 C 28,3 C 26,1 C 47 % 1018,5 hPa 0,0 l/m 2 min 0 min 549 W/m 11,3 km/h (2 Bft) 100,00 %
05.08.2018 17:46 28,4 C 28,3 C 26,1 C 47 % 1018,5 hPa 0,0 l/m 2 min 0 min 547 W/m 6,8 km/h (2 Bft) 100,00 %
05.08.2018 17:48 28,4 C 28,9 C 26,1 C 48 % 1018,4 hPa 0,0 l/m 2 min 0 min 542 W/m 9,0 km/h (2 Bft) 100,00 %
05.08.2018 17:50 28,4 C 28,3 C 26,7 C 47 % 1018,5 hPa 0,0 l/m 2 min 0 min 537 W/m 13,5 km/h (3 Bft) 100,00 %
05.08.2018 17:52 28,4 C 28,3 C 26,1 C 46 % 1018,5 hPa 0,0 l/m 2 min 0 min 533 W/m 15,8 km/h (3 Bft) 100,00 %
05.08.2018 17:54 28,4 C 28,3 C 26,1 C 47 % 1018,5 hPa 0,0 l/m 2 min 0 min 528 W/m 11,3 km/h (2 Bft) 100,00 %
05.08.2018 17:56 28,4 C 28,3 C 26,1 C 47 % 1018,4 hPa 0,0 l/m 2 min 0 min 524 W/m 9,0 km/h (2 Bft) 100,00 %
05.08.2018 17:58 28,4 C 27,8 C 26,1 C 47 % 1018,4 hPa 0,0 l/m 2 min 0 min 519 W/m 13,5 km/h (3 Bft) 100,00 %
05.08.2018 18:00 28,4 C 27,8 C 26,1 C 46 % 1018,4 hPa 0,0 l/m 2 min 0 min 512 W/m 11,3 km/h (2 Bft) 100,00 %
05.08.2018 18:02 28,4 C 27,8 C 26,1 C 46 % 1018,4 hPa 0,0 l/m 2 min 0 min 506 W/m 15,8 km/h (3 Bft) 97,87 %
05.08.2018 18:04 28,4 C 27,8 C 26,1 C 47 % 1018,4 hPa 0,0 l/m 2 min 0 min 503 W/m 9,0 km/h (2 Bft) 97,87 %
05.08.2018 18:06 28,4 C 27,8 C 26,1 C 46 % 1018,4 hPa 0,0 l/m 2 min 0 min 497 W/m 11,3 km/h (2 Bft) 100,00 %
05.08.2018 18:08 28,4 C 27,8 C 26,1 C 47 % 1018,4 hPa 0,0 l/m 2 min 0 min 495 W/m 6,8 km/h (2 Bft) 95,74 %
05.08.2018 18:10 28,4 C 28,3 C 26,7 C 47 % 1018,3 hPa 0,0 l/m 2 min 0 min 490 W/m 9,0 km/h (2 Bft) 97,83 %
05.08.2018 18:12 28,4 C 28,3 C 26,7 C 47 % 1018,4 hPa 0,0 l/m 2 min 0 min 483 W/m 9,0 km/h (2 Bft) 97,87 %
05.08.2018 18:14 28,4 C 28,3 C 26,7 C 48 % 1018,3 hPa 0,0 l/m 2 min 0 min 478 W/m 6,8 km/h (2 Bft) 97,87 %
05.08.2018 18:16 28,4 C 28,3 C 26,7 C 47 % 1018,4 hPa 0,0 l/m 2 min 0 min 473 W/m 9,0 km/h (2 Bft) 100,00 %
05.08.2018 18:18 28,4 C 28,3 C 26,7 C 47 % 1018,3 hPa 0,0 l/m 2 min 0 min 469 W/m 11,3 km/h (2 Bft) 97,87 %
05.08.2018 18:20 28,4 C 27,8 C 26,7 C 47 % 1018,3 hPa 0,0 l/m 2 min 0 min 463 W/m 18,0 km/h (3 Bft) 97,87 %
05.08.2018 18:22 28,3 C 27,8 C 26,7 C 47 % 1018,4 hPa 0,0 l/m 2 min 0 min 458 W/m 6,8 km/h (2 Bft) 97,87 %
05.08.2018 18:24 28,3 C 27,8 C 26,1 C 47 % 1018,2 hPa 0,0 l/m 2 min 0 min 452 W/m 13,5 km/h (3 Bft) 97,87 %
05.08.2018 18:26 28,3 C 27,8 C 26,1 C 47 % 1018,3 hPa 0,0 l/m 2 min 0 min 447 W/m 11,3 km/h (2 Bft) 95,74 %
05.08.2018 18:28 28,3 C 27,8 C 26,1 C 47 % 1018,3 hPa 0,0 l/m 2 min 0 min 440 W/m 11,3 km/h (2 Bft) 95,74 %
05.08.2018 18:30 28,3 C 27,8 C 26,1 C 47 % 1018,2 hPa 0,0 l/m 2 min 0 min 436 W/m 9,0 km/h (2 Bft) 95,74 %
05.08.2018 18:32 28,3 C 27,8 C 26,1 C 47 % 1018,2 hPa 0,0 l/m 2 min 0 min 430 W/m 11,3 km/h (2 Bft) 95,65 %
05.08.2018 18:34 28,3 C 27,8 C 26,1 C 48 % 1018,2 hPa 0,0 l/m 2 min 0 min 424 W/m 11,3 km/h (2 Bft) 95,74 %
05.08.2018 18:36 28,3 C 27,8 C 26,1 C 48 % 1018,0 hPa 0,0 l/m 2 min 0 min 419 W/m 6,8 km/h (2 Bft) 91,67 %
05.08.2018 18:38 28,2 C 27,8 C 26,1 C 47 % 1018,0 hPa 0,0 l/m 2 min 0 min 409 W/m 9,0 km/h (2 Bft) 95,65 %
05.08.2018 18:40 28,2 C 27,8 C 26,1 C 47 % 1018,0 hPa 0,0 l/m 2 min 0 min 391 W/m 6,8 km/h (2 Bft) 93,62 %
05.08.2018 18:42 28,2 C 27,8 C 26,1 C 47 % 1018,1 hPa 0,0 l/m 2 min 0 min 387 W/m 9,0 km/h (2 Bft) 93,62 %
05.08.2018 18:44 28,2 C 27,8 C 26,1 C 48 % 1018,0 hPa 0,0 l/m 2 min 0 min 214 W/m 15,8 km/h (3 Bft) 93,62 %
05.08.2018 18:46 28,2 C 27,8 C 26,1 C 47 % 1018,1 hPa 0,0 l/m 0 min 0 min 172 W/m 9,0 km/h (2 Bft) 93,48 %
05.08.2018 18:48 28,2 C 27,8 C 26,1 C 48 % 1018,1 hPa 0,0 l/m 0 min 0 min 87 W/m 9,0 km/h (2 Bft) 91,49 %
05.08.2018 18:50 28,1 C 27,8 C 26,1 C 47 % 1018,1 hPa 0,0 l/m 0 min 0 min 90 W/m 11,3 km/h (2 Bft) 93,62 %
05.08.2018 18:52 28,1 C 27,2 C 26,1 C 47 % 1018,0 hPa 0,0 l/m 0 min 0 min 74 W/m 4,5 km/h (1 Bft) 91,49 %
05.08.2018 18:54 28,1 C 27,2 C 26,1 C 47 % 1018,0 hPa 0,0 l/m 0 min 0 min 65 W/m 9,0 km/h (2 Bft) 93,62 %
05.08.2018 18:56 28,1 C 27,2 C 26,1 C 47 % 1018,0 hPa 0,0 l/m 0 min 0 min 69 W/m 11,3 km/h (2 Bft) 91,30 %
05.08.2018 18:58 28,1 C 27,2 C 26,1 C 47 % 1018,0 hPa 0,0 l/m 0 min 0 min 72 W/m 11,3 km/h (2 Bft) 93,62 %
05.08.2018 19:00 28,1 C 27,2 C 26,1 C 47 % 1018,1 hPa 0,0 l/m 0 min 0 min 64 W/m 6,8 km/h (2 Bft) 93,62 %
05.08.2018 19:02 28,0 C 27,2 C 26,1 C 48 % 1018,1 hPa 0,0 l/m 0 min 0 min 55 W/m 6,8 km/h (2 Bft) 93,75 %
05.08.2018 19:04 28,0 C 27,2 C 26,1 C 47 % 1018,0 hPa 0,0 l/m 0 min 0 min 52 W/m 9,0 km/h (2 Bft) 93,62 %
05.08.2018 19:06 28,0 C 27,2 C 25,6 C 47 % 1018,0 hPa 0,0 l/m 0 min 0 min 92 W/m 6,8 km/h (2 Bft) 91,49 %
05.08.2018 19:08 27,9 C 27,2 C 25,6 C 47 % 1017,9 hPa 0,0 l/m 0 min 0 min 146 W/m 11,3 km/h (2 Bft) 93,48 %
05.08.2018 19:10 27,9 C 27,2 C 25,6 C 48 % 1018,0 hPa 0,0 l/m 0 min 0 min 65 W/m 13,5 km/h (3 Bft) 91,49 %
05.08.2018 19:12 27,9 C 26,7 C 25,6 C 48 % 1017,9 hPa 0,0 l/m 0 min 0 min 54 W/m 9,0 km/h (2 Bft) 93,62 %
05.08.2018 19:14 27,8 C 26,7 C 25,6 C 48 % 1017,9 hPa 0,0 l/m 0 min 0 min 78 W/m 11,3 km/h (2 Bft) 93,62 %
05.08.2018 19:16 27,8 C 26,7 C 25,6 C 47 % 1017,9 hPa 0,0 l/m 0 min 0 min 102 W/m 18,0 km/h (3 Bft) 95,74 %
05.08.2018 19:18 27,7 C 26,7 C 25,6 C 48 % 1017,9 hPa 0,0 l/m 0 min 0 min 95 W/m 9,0 km/h (2 Bft) 95,74 %
05.08.2018 19:20 27,7 C 26,1 C 25,6 C 48 % 1017,8 hPa 0,0 l/m 0 min 0 min 88 W/m 11,3 km/h (2 Bft) 95,65 %
05.08.2018 19:22 27,6 C 26,1 C 25,0 C 48 % 1017,8 hPa 0,0 l/m 0 min 0 min 43 W/m 4,5 km/h (1 Bft) 95,83 %
05.08.2018 19:24 27,6 C 26,1 C 25,0 C 48 % 1017,9 hPa 0,0 l/m 0 min 0 min 41 W/m 6,8 km/h (2 Bft) 93,62 %
05.08.2018 19:26 27,5 C 26,1 C 25,0 C 48 % 1017,9 hPa 0,0 l/m 0 min 0 min 40 W/m 9,0 km/h (2 Bft) 93,62 %
05.08.2018 19:28 27,4 C 26,1 C 25,0 C 48 % 1017,9 hPa 0,0 l/m 0 min 0 min 40 W/m 6,8 km/h (2 Bft) 93,62 %
05.08.2018 19:30 27,4 C 26,1 C 25,0 C 48 % 1017,9 hPa 0,0 l/m 0 min 0 min 39 W/m 6,8 km/h (2 Bft) 95,74 %
05.08.2018 19:32 27,3 C 26,1 C 25,0 C 48 % 1017,9 hPa 0,0 l/m 0 min 0 min 39 W/m 11,3 km/h (2 Bft) 95,65 %
05.08.2018 19:34 27,3 C 26,1 C 25,0 C 49 % 1017,8 hPa 0,0 l/m 0 min 0 min 39 W/m 9,0 km/h (2 Bft) 95,74 %
05.08.2018 19:36 27,2 C 25,6 C 25,0 C 49 % 1017,8 hPa 0,0 l/m 0 min 0 min 39 W/m 9,0 km/h (2 Bft) 97,87 %
05.08.2018 19:38 27,2 C 25,6 C 25,0 C 49 % 1017,8 hPa 0,0 l/m 0 min 0 min 37 W/m 13,5 km/h (3 Bft) 97,87 %
05.08.2018 19:40 27,2 C 25,6 C 24,4 C 49 % 1017,8 hPa 0,0 l/m 0 min 0 min 37 W/m 4,5 km/h (1 Bft) 97,87 %
05.08.2018 19:42 27,1 C 25,6 C 24,4 C 50 % 1017,9 hPa 0,0 l/m 0 min 0 min 37 W/m 18,0 km/h (3 Bft) 97,83 %
05.08.2018 19:44 27,0 C 25,6 C 24,4 C 49 % 1017,8 hPa 0,0 l/m 0 min 0 min 36 W/m 9,0 km/h (2 Bft) 93,62 %
05.08.2018 19:46 26,9 C 25,6 C 23,3 C 50 % 1017,8 hPa 0,0 l/m 0 min 0 min 35 W/m 11,3 km/h (2 Bft) 97,56 %
05.08.2018 19:48 26,9 C 25,0 C 21,7 C 50 % 1017,8 hPa 0,0 l/m 0 min 0 min 34 W/m 6,8 km/h (2 Bft) 97,87 %
05.08.2018 19:50 26,8 C 23,3 C 19,4 C 53 % 1017,8 hPa 0,0 l/m 0 min 0 min 33 W/m 6,8 km/h (2 Bft) 96,23 %
05.08.2018 19:52 26,8 C 22,8 C 18,9 C 53 % 1017,8 hPa 0,0 l/m 0 min 0 min 33 W/m 4,5 km/h (1 Bft) 98,04 %
05.08.2018 19:54 26,7 C 22,8 C 18,9 C 53 % 1017,7 hPa 0,0 l/m 0 min 0 min 33 W/m 9,0 km/h (2 Bft) 100,00 %
05.08.2018 19:56 26,7 C 22,8 C 18,3 C 52 % 1017,7 hPa 0,0 l/m 0 min 0 min 32 W/m 9,0 km/h (2 Bft) 100,00 %
05.08.2018 19:58 26,6 C 22,2 C 17,2 C 55 % 1017,7 hPa 0,0 l/m 0 min 0 min 32 W/m 6,8 km/h (2 Bft) 100,00 %
05.08.2018 20:00 26,5 C 22,2 C 17,2 C 52 % 1017,7 hPa 0,0 l/m 0 min 0 min 30 W/m 13,5 km/h (3 Bft) 100,00 %
05.08.2018 20:02 26,4 C 20,6 C 17,2 C 55 % 1017,7 hPa 0,0 l/m 0 min 0 min 30 W/m 6,8 km/h (2 Bft) 100,00 %
05.08.2018 20:04 26,3 C 19,4 C 16,7 C 53 % 1017,7 hPa 0,0 l/m 0 min 0 min 30 W/m 15,8 km/h (3 Bft) 97,87 %
05.08.2018 20:06 26,2 C 18,9 C 16,7 C 54 % 1017,7 hPa 0,0 l/m 0 min 0 min 28 W/m 6,8 km/h (2 Bft) 100,00 %
05.08.2018 20:08 26,1 C 18,9 C 17,2 C 54 % 1017,7 hPa 0,0 l/m 0 min 0 min 28 W/m 9,0 km/h (2 Bft) 100,00 %
05.08.2018 20:10 25,9 C 18,3 C 16,7 C 56 % 1017,7 hPa 0,0 l/m 0 min 0 min 28 W/m 6,8 km/h (2 Bft) 100,00 %
05.08.2018 20:12 25,8 C 18,3 C 17,2 C 53 % 1017,7 hPa 0,0 l/m 0 min 0 min 26 W/m 9,0 km/h (2 Bft) 100,00 %
05.08.2018 20:14 25,8 C 18,3 C 17,2 C 55 % 1017,7 hPa 0,0 l/m 0 min 0 min 26 W/m 9,0 km/h (2 Bft) 100,00 %
05.08.2018 20:16 25,7 C 18,3 C 16,7 C 55 % 1017,7 hPa 0,0 l/m 0 min 0 min 25 W/m 15,8 km/h (3 Bft) 100,00 %
05.08.2018 20:18 25,6 C 18,3 C 16,7 C 53 % 1017,7 hPa 0,0 l/m 0 min 0 min 25 W/m 9,0 km/h (2 Bft) 100,00 %
05.08.2018 20:20 25,4 C 18,3 C 17,2 C 54 % 1017,7 hPa 0,0 l/m 0 min 0 min 25 W/m 11,3 km/h (2 Bft) 100,00 %
05.08.2018 20:22 25,3 C 18,9 C 17,2 C 56 % 1017,7 hPa 0,0 l/m 0 min 0 min 23 W/m 9,0 km/h (2 Bft) 100,00 %
05.08.2018 20:24 25,2 C 18,9 C 16,7 C 55 % 1017,7 hPa 0,0 l/m 0 min 0 min 23 W/m 4,5 km/h (1 Bft) 100,00 %
05.08.2018 20:26 25,1 C 18,9 C 16,7 C 56 % 1017,7 hPa 0,0 l/m 0 min 0 min 21 W/m 15,8 km/h (3 Bft) 100,00 %
05.08.2018 20:28 25,1 C 18,3 C 16,7 C 56 % 1017,7 hPa 0,0 l/m 0 min 0 min 21 W/m 6,8 km/h (2 Bft) 100,00 %
05.08.2018 20:30 25,0 C 17,8 C 16,7 C 56 % 1017,7 hPa 0,0 l/m 0 min 0 min 20 W/m 4,5 km/h (1 Bft) 100,00 %
05.08.2018 20:32 24,9 C 17,8 C 16,7 C 56 % 1017,6 hPa 0,0 l/m 0 min 0 min 19 W/m 4,5 km/h (1 Bft) 100,00 %
05.08.2018 20:34 24,8 C 18,3 C 16,7 C 59 % 1017,7 hPa 0,0 l/m 0 min 0 min 19 W/m 2,3 km/h (1 Bft) 100,00 %
05.08.2018 20:36 24,8 C 17,8 C 16,7 C 58 % 1017,7 hPa 0,0 l/m 0 min 0 min 19 W/m 6,8 km/h (2 Bft) 100,00 %
05.08.2018 20:38 24,7 C 17,8 C 16,7 C 57 % 1017,7 hPa 0,0 l/m 0 min 0 min 18 W/m 6,8 km/h (2 Bft) 100,00 %
05.08.2018 20:40 24,6 C 17,8 C 16,7 C 58 % 1017,7 hPa 0,0 l/m 0 min 0 min 18 W/m 4,5 km/h (1 Bft) 100,00 %
05.08.2018 20:42 24,5 C 17,8 C 16,7 C 60 % 1017,7 hPa 0,0 l/m 0 min 0 min 16 W/m 2,3 km/h (1 Bft) 100,00 %
05.08.2018 20:44 24,4 C 17,8 C 16,7 C 60 % 1017,7 hPa 0,0 l/m 0 min 0 min 16 W/m 9,0 km/h (2 Bft) 100,00 %
05.08.2018 20:46 24,3 C 18,3 C 16,7 C 57 % 1017,6 hPa 0,0 l/m 0 min 0 min 15 W/m 9,0 km/h (2 Bft) 100,00 %
05.08.2018 20:48 24,2 C 18,3 C 16,7 C 58 % 1017,7 hPa 0,0 l/m 0 min 0 min 14 W/m 11,3 km/h (2 Bft) 95,74 %
05.08.2018 20:50 24,1 C 17,8 C 16,7 C 58 % 1017,8 hPa 0,0 l/m 0 min 0 min 14 W/m 6,8 km/h (2 Bft) 100,00 %
05.08.2018 20:52 24,1 C 17,2 C 16,1 C 60 % 1017,7 hPa 0,0 l/m 0 min 0 min 13 W/m 2,3 km/h (1 Bft) 100,00 %
05.08.2018 20:54 24,0 C 17,8 C 16,7 C 60 % 1017,7 hPa 0,0 l/m 0 min 0 min 12 W/m 6,8 km/h (2 Bft) 100,00 %
05.08.2018 20:56 23,9 C 17,2 C 16,7 C 59 % 1017,7 hPa 0,0 l/m 0 min 0 min 12 W/m 4,5 km/h (1 Bft) 100,00 %
05.08.2018 20:58 23,9 C 17,8 C 16,7 C 60 % 1017,8 hPa 0,0 l/m 0 min 0 min 11 W/m 4,5 km/h (1 Bft) 100,00 %
05.08.2018 21:00 23,8 C 17,8 C 16,7 C 60 % 1017,8 hPa 0,0 l/m 0 min 0 min 11 W/m 4,5 km/h (1 Bft) 100,00 %
05.08.2018 21:02 23,8 C 18,3 C 17,2 C 60 % 1017,8 hPa 0,0 l/m 0 min 0 min 11 W/m 6,8 km/h (2 Bft) 95,74 %
05.08.2018 21:04 23,7 C 18,3 C 17,2 C 59 % 1017,8 hPa 0,0 l/m 0 min 0 min 9 W/m 4,5 km/h (1 Bft) 97,87 %
05.08.2018 21:06 23,6 C 18,3 C 17,2 C 59 % 1017,8 hPa 0,0 l/m 0 min 0 min 9 W/m 6,8 km/h (2 Bft) 97,87 %
05.08.2018 21:08 23,6 C 18,3 C 17,2 C 59 % 1017,8 hPa 0,0 l/m 0 min 0 min 7 W/m 4,5 km/h (1 Bft) 97,83 %
05.08.2018 21:10 23,5 C 18,9 C 17,8 C 58 % 1017,8 hPa 0,0 l/m 0 min 0 min 7 W/m 4,5 km/h (1 Bft) 97,87 %
05.08.2018 21:12 23,4 C 19,4 C 17,8 C 60 % 1017,8 hPa 0,0 l/m 0 min 0 min 6 W/m 6,8 km/h (2 Bft) 95,74 %
05.08.2018 21:14 23,4 C 20,0 C 17,8 C 58 % 1017,8 hPa 0,0 l/m 0 min 0 min 5 W/m 4,5 km/h (1 Bft) 95,74 %
05.08.2018 21:16 23,3 C 20,0 C 17,8 C 59 % 1017,8 hPa 0,0 l/m 0 min 0 min 5 W/m 4,5 km/h (1 Bft) 97,92 %
05.08.2018 21:18 23,3 C 20,6 C 17,8 C 59 % 1017,8 hPa 0,0 l/m 0 min 0 min 5 W/m 4,5 km/h (1 Bft) 97,92 %
05.08.2018 21:20 23,2 C 20,6 C 17,8 C 59 % 1017,8 hPa 0,0 l/m 0 min 0 min 4 W/m 0,0 km/h (0 Bft) 97,87 %
05.08.2018 21:22 23,2 C 21,1 C 17,8 C 60 % 1017,8 hPa 0,0 l/m 0 min 0 min 0 W/m 2,3 km/h (1 Bft) 97,87 %
05.08.2018 21:24 23,2 C 21,1 C 17,8 C 59 % 1017,8 hPa 0,0 l/m 0 min 0 min 0 W/m 4,5 km/h (1 Bft) 97,87 %
05.08.2018 21:26 23,1 C 21,1 C 18,3 C 60 % 1017,8 hPa 0,0 l/m 0 min 0 min 0 W/m 4,5 km/h (1 Bft) 97,87 %
05.08.2018 21:28 23,1 C 21,7 C 18,3 C 59 % 1017,8 hPa 0,0 l/m 0 min 0 min 0 W/m 4,5 km/h (1 Bft) 95,65 %
05.08.2018 21:30 23,1 C 21,7 C 18,3 C 60 % 1017,8 hPa 0,0 l/m 0 min 0 min 0 W/m 6,8 km/h (2 Bft) 97,87 %
05.08.2018 21:32 23,0 C 21,1 C 18,3 C 60 % 1017,8 hPa 0,0 l/m 0 min 0 min 0 W/m 2,3 km/h (1 Bft) 97,87 %
05.08.2018 21:34 23,0 C 21,1 C 17,8 C 60 % 1017,7 hPa 0,0 l/m 0 min 0 min 0 W/m 2,3 km/h (1 Bft) 97,87 %
05.08.2018 21:36 22,9 C 21,1 C 17,8 C 60 % 1017,7 hPa 0,0 l/m 0 min 0 min 0 W/m 4,5 km/h (1 Bft) 95,74 %
05.08.2018 21:38 22,9 C 21,1 C 17,8 C 59 % 1017,7 hPa 0,0 l/m 0 min 0 min 0 W/m 2,3 km/h (1 Bft) 97,87 %
05.08.2018 21:40 22,9 C 21,1 C 17,8 C 59 % 1017,8 hPa 0,0 l/m 0 min 0 min 0 W/m 2,3 km/h (1 Bft) 97,83 %
05.08.2018 21:42 22,9 C 21,1 C 17,8 C 59 % 1017,7 hPa 0,0 l/m 0 min 0 min 0 W/m 0,0 km/h (0 Bft) 91,49 %
05.08.2018 21:44 22,9 C 21,1 C 17,8 C 60 % 1017,7 hPa 0,0 l/m 0 min 0 min 0 W/m 2,3 km/h (1 Bft) 95,74 %
05.08.2018 21:46 22,8 C 21,1 C 17,8 C 60 % 1017,7 hPa 0,0 l/m 0 min 0 min 0 W/m 2,3 km/h (1 Bft) 95,74 %
05.08.2018 21:48 22,8 C 21,1 C 17,8 C 59 % 1017,7 hPa 0,0 l/m 0 min 0 min 0 W/m 4,5 km/h (1 Bft) 95,74 %
05.08.2018 21:50 22,8 C 21,1 C 17,8 C 59 % 1017,7 hPa 0,0 l/m 0 min 0 min 0 W/m 4,5 km/h (1 Bft) 100,00 %
05.08.2018 21:52 22,8 C 21,1 C 18,3 C 59 % 1017,7 hPa 0,0 l/m 0 min 0 min 0 W/m 4,5 km/h (1 Bft) 95,65 %
05.08.2018 21:54 22,7 C 21,1 C 18,3 C 60 % 1017,7 hPa 0,0 l/m 0 min 0 min 0 W/m 2,3 km/h (1 Bft) 95,74 %
05.08.2018 21:56 22,7 C 21,1 C 18,3 C 60 % 1017,7 hPa 0,0 l/m 0 min 0 min 0 W/m 2,3 km/h (1 Bft) 95,74 %
05.08.2018 21:58 22,7 C 21,1 C 18,3 C 60 % 1017,7 hPa 0,0 l/m 0 min 0 min 0 W/m 0,0 km/h (0 Bft) 95,74 %
05.08.2018 22:00 22,7 C 21,1 C 18,3 C 60 % 1017,7 hPa 0,0 l/m 0 min 0 min 0 W/m 4,5 km/h (1 Bft) 95,74 %
05.08.2018 22:02 22,7 C 20,6 C 18,9 C 60 % 1017,7 hPa 0,0 l/m 0 min 0 min 0 W/m 4,5 km/h (1 Bft) 93,62 %
05.08.2018 22:04 22,6 C 20,6 C 19,4 C 60 % 1017,7 hPa 0,0 l/m 0 min 0 min 0 W/m 2,3 km/h (1 Bft) 93,48 %
05.08.2018 22:06 22,6 C 20,6 C 19,4 C 60 % 1017,7 hPa 0,0 l/m 0 min 0 min 0 W/m 2,3 km/h (1 Bft) 91,49 %
05.08.2018 22:08 22,6 C 20,6 C 19,4 C 60 % 1017,7 hPa 0,0 l/m 0 min 0 min 0 W/m 0,0 km/h (0 Bft) 95,74 %
05.08.2018 22:10 22,6 C 20,6 C 19,4 C 60 % 1017,8 hPa 0,0 l/m 0 min 0 min 0 W/m 0,0 km/h (0 Bft) 95,74 %
05.08.2018 22:12 22,6 C 20,0 C 19,4 C 60 % 1017,7 hPa 0,0 l/m 0 min 0 min 0 W/m 0,0 km/h (0 Bft) 93,62 %
05.08.2018 22:14 22,5 C 20,0 C 19,4 C 60 % 1017,7 hPa 0,0 l/m 0 min 0 min 0 W/m 0,0 km/h (0 Bft) 93,62 %
05.08.2018 22:16 22,5 C 20,0 C 19,4 C 61 % 1017,8 hPa 0,0 l/m 0 min 0 min 0 W/m 0,0 km/h (0 Bft) 95,65 %
05.08.2018 22:18 22,4 C 20,0 C 19,4 C 61 % 1017,7 hPa 0,0 l/m 0 min 0 min 0 W/m 0,0 km/h (0 Bft) 95,74 %
05.08.2018 22:20 22,4 C 20,0 C 19,4 C 61 % 1017,7 hPa 0,0 l/m 0 min 0 min 0 W/m 0,0 km/h (0 Bft) 95,74 %
05.08.2018 22:22 22,4 C 20,0 C 19,4 C 61 % 1017,8 hPa 0,0 l/m 0 min 0 min 0 W/m 0,0 km/h (0 Bft) 95,83 %
05.08.2018 22:24 22,3 C 20,0 C 19,4 C 61 % 1017,7 hPa 0,0 l/m 0 min 0 min 0 W/m 0,0 km/h (0 Bft) 96,00 %
05.08.2018 22:26 22,3 C 20,0 C 18,9 C 61 % 1017,8 hPa 0,0 l/m 0 min 0 min 0 W/m 0,0 km/h (0 Bft) 95,65 %
05.08.2018 22:28 22,3 C 20,0 C 18,9 C 61 % 1017,7 hPa 0,0 l/m 0 min 0 min 0 W/m 0,0 km/h (0 Bft) 95,74 %
05.08.2018 22:30 22,2 C 19,4 C 18,9 C 61 % 1017,8 hPa 0,0 l/m 0 min 0 min 0 W/m 0,0 km/h (0 Bft) 93,62 %
05.08.2018 22:32 22,2 C 19,4 C 18,9 C 62 % 1017,8 hPa 0,0 l/m 0 min 0 min 0 W/m 0,0 km/h (0 Bft) 95,74 %
05.08.2018 22:34 22,1 C 19,4 C 18,9 C 62 % 1017,8 hPa 0,0 l/m 0 min 0 min 0 W/m 0,0 km/h (0 Bft) 95,74 %
05.08.2018 22:36 22,1 C 19,4 C 18,9 C 62 % 1017,8 hPa 0,0 l/m 0 min 0 min 0 W/m 0,0 km/h (0 Bft) 95,74 %
05.08.2018 22:38 22,0 C 19,4 C 18,9 C 62 % 1017,8 hPa 0,0 l/m 0 min 0 min 0 W/m 0,0 km/h (0 Bft) 95,65 %
05.08.2018 22:40 21,9 C 19,4 C 18,9 C 62 % 1017,8 hPa 0,0 l/m 0 min 0 min 0 W/m 0,0 km/h (0 Bft) 95,74 %
05.08.2018 22:42 21,9 C 19,4 C 18,9 C 63 % 1017,9 hPa 0,0 l/m 0 min 0 min 0 W/m 2,3 km/h (1 Bft) 95,74 %
05.08.2018 22:44 21,8 C 20,0 C 18,9 C 63 % 1017,9 hPa 0,0 l/m 0 min 0 min 0 W/m 4,5 km/h (1 Bft) 97,87 %
05.08.2018 22:46 21,8 C 19,4 C 18,9 C 63 % 1017,8 hPa 0,0 l/m 0 min 0 min 0 W/m 0,0 km/h (0 Bft) 95,74 %
05.08.2018 22:48 21,8 C 19,4 C 18,9 C 63 % 1017,7 hPa 0,0 l/m 0 min 0 min 0 W/m 0,0 km/h (0 Bft) 97,83 %
05.08.2018 22:50 21,7 C 19,4 C 18,9 C 63 % 1017,8 hPa 0,0 l/m 0 min 0 min 0 W/m 0,0 km/h (0 Bft) 97,87 %
05.08.2018 22:52 21,7 C 19,4 C 18,9 C 64 % 1017,8 hPa 0,0 l/m 0 min 0 min 0 W/m 0,0 km/h (0 Bft) 97,87 %
05.08.2018 22:54 21,6 C 18,9 C 18,9 C 64 % 1017,8 hPa 0,0 l/m 0 min 0 min 0 W/m 0,0 km/h (0 Bft) 100,00 %
05.08.2018 22:56 21,6 C 18,9 C 18,9 C 64 % 1017,8 hPa 0,0 l/m 0 min 0 min 0 W/m 0,0 km/h (0 Bft) 100,00 %
05.08.2018 22:58 21,5 C 18,9 C 18,9 C 64 % 1017,8 hPa 0,0 l/m 0 min 0 min 0 W/m 0,0 km/h (0 Bft) 97,87 %
05.08.2018 23:00 21,4 C 18,9 C 18,9 C 64 % 1017,7 hPa 0,0 l/m 0 min 0 min 0 W/m 0,0 km/h (0 Bft) 100,00 %
05.08.2018 23:02 21,4 C 18,9 C 18,3 C 64 % 1017,8 hPa 0,0 l/m 0 min 0 min 0 W/m 0,0 km/h (0 Bft) 93,62 %
05.08.2018 23:04 21,3 C 18,9 C 18,3 C 64 % 1017,8 hPa 0,0 l/m 0 min 0 min 0 W/m 0,0 km/h (0 Bft) 100,00 %
05.08.2018 23:06 21,3 C 18,9 C 18,3 C 64 % 1017,8 hPa 0,0 l/m 0 min 0 min 0 W/m 0,0 km/h (0 Bft) 100,00 %
05.08.2018 23:08 21,2 C 18,9 C 18,3 C 64 % 1017,8 hPa 0,0 l/m 0 min 0 min 0 W/m 0,0 km/h (0 Bft) 97,87 %
05.08.2018 23:10 21,2 C 18,9 C 18,3 C 64 % 1017,8 hPa 0,0 l/m 0 min 0 min 0 W/m 2,3 km/h (1 Bft) 100,00 %
05.08.2018 23:12 21,2 C 18,9 C 18,3 C 64 % 1017,8 hPa 0,0 l/m 0 min 0 min 0 W/m 4,5 km/h (1 Bft) 100,00 %
05.08.2018 23:14 21,1 C 18,9 C 18,3 C 64 % 1017,8 hPa 0,0 l/m 0 min 0 min 0 W/m 0,0 km/h (0 Bft) 100,00 %
05.08.2018 23:16 21,1 C 18,9 C 18,3 C 64 % 1017,8 hPa 0,0 l/m 0 min 0 min 0 W/m 0,0 km/h (0 Bft) 97,87 %
05.08.2018 23:18 21,0 C 18,9 C 18,3 C 64 % 1017,8 hPa 0,0 l/m 0 min 0 min 0 W/m 0,0 km/h (0 Bft) 100,00 %
05.08.2018 23:20 21,0 C 18,9 C 18,3 C 65 % 1017,8 hPa 0,0 l/m 0 min 0 min 0 W/m 2,3 km/h (1 Bft) 97,87 %
05.08.2018 23:22 20,9 C 18,9 C 18,3 C 65 % 1017,8 hPa 0,0 l/m 0 min 0 min 0 W/m 2,3 km/h (1 Bft) 100,00 %
05.08.2018 23:24 20,9 C 18,9 C 18,3 C 65 % 1017,8 hPa 0,0 l/m 0 min 0 min 0 W/m 2,3 km/h (1 Bft) 100,00 %
05.08.2018 23:26 20,9 C 18,9 C 18,3 C 65 % 1017,8 hPa 0,0 l/m 0 min 0 min 0 W/m 2,3 km/h (1 Bft) 100,00 %
05.08.2018 23:28 20,8 C 18,9 C 18,3 C 65 % 1017,8 hPa 0,0 l/m 0 min 0 min 0 W/m 2,3 km/h (1 Bft) 100,00 %
05.08.2018 23:30 20,8 C 18,9 C 18,3 C 65 % 1017,8 hPa 0,0 l/m 0 min 0 min 0 W/m 2,3 km/h (1 Bft) 97,87 %
05.08.2018 23:32 20,8 C 18,9 C 18,3 C 65 % 1017,8 hPa 0,0 l/m 0 min 0 min 0 W/m 0,0 km/h (0 Bft) 100,00 %
05.08.2018 23:34 20,7 C 18,9 C 18,3 C 65 % 1017,8 hPa 0,0 l/m 0 min 0 min 0 W/m 0,0 km/h (0 Bft) 100,00 %
05.08.2018 23:36 20,7 C 18,9 C 18,3 C 65 % 1017,8 hPa 0,0 l/m 0 min 0 min 0 W/m 0,0 km/h (0 Bft) 100,00 %
05.08.2018 23:38 20,7 C 18,9 C 18,3 C 65 % 1017,8 hPa 0,0 l/m 0 min 0 min 0 W/m 0,0 km/h (0 Bft) 100,00 %
05.08.2018 23:40 20,6 C 18,9 C 18,3 C 65 % 1017,8 hPa 0,0 l/m 0 min 0 min 0 W/m 0,0 km/h (0 Bft) 100,00 %
05.08.2018 23:42 20,6 C 18,9 C 18,3 C 66 % 1017,9 hPa 0,0 l/m 0 min 0 min 0 W/m 0,0 km/h (0 Bft) 100,00 %
05.08.2018 23:44 20,6 C 18,9 C 18,3 C 66 % 1017,8 hPa 0,0 l/m 0 min 0 min 0 W/m 0,0 km/h (0 Bft) 100,00 %
05.08.2018 23:46 20,5 C 18,9 C 18,3 C 66 % 1017,8 hPa 0,0 l/m 0 min 0 min 0 W/m 0,0 km/h (0 Bft) 95,74 %
05.08.2018 23:48 20,5 C 18,9 C 18,3 C 66 % 1017,8 hPa 0,0 l/m 0 min 0 min 0 W/m 0,0 km/h (0 Bft) 97,87 %
05.08.2018 23:50 20,4 C 18,9 C 18,3 C 65 % 1017,8 hPa 0,0 l/m 0 min 0 min 0 W/m 0,0 km/h (0 Bft) 97,87 %
05.08.2018 23:52 20,4 C 18,9 C 18,3 C 66 % 1017,8 hPa 0,0 l/m 0 min 0 min 0 W/m 0,0 km/h (0 Bft) 97,83 %
05.08.2018 23:54 20,4 C 18,9 C 18,3 C 66 % 1017,8 hPa 0,0 l/m 0 min 0 min 0 W/m 0,0 km/h (0 Bft) 97,87 %
05.08.2018 23:56 20,4 C 18,9 C 18,3 C 66 % 1017,8 hPa 0,0 l/m 0 min 0 min 0 W/m 0,0 km/h (0 Bft) 93,62 %
05.08.2018 23:58 20,3 C 18,9 C 18,3 C 66 % 1017,7 hPa 0,0 l/m 0 min 0 min 0 W/m 0,0 km/h (0 Bft) 97,87 %
_ Min-Zeit 07:06 05:50 20:52 17:20 20:32 - - - - 02:12 04:02
Minimum _ 17,8 C 16,7 C 16,1 C 46 % 1017,6 hPa - - - - 0,0 km/h (0 Bft) 88,89 %
_ Max-Zeit 16:54 11:54 17:50 07:48 10:04 00:00 11:08 00:00 12:56 15:58 00:34
Maximum _ 28,4 C 35,6 C 26,7 C 95 % 1021,0 hPa 0,0 l/m 4 min 0 min 863 W/m 22,5 km/h
W-NW (4 Bft)
100,00 %
Durchschnitt _ 23,0 C 23,1 C 20,9 C 70 % 1019,4 hPa #0,0 l/m #8:46 h #0 min. 411 W/m 7,6 km/h (2 Bft) 97,53 %
© 2018 W. Hausmann